Time,TemperatureF,DewpointF,PressureIn,WindDirection,WindDirectionDegrees,WindSpeedMPH,WindSpeedGustMPH,Humidity,HourlyPrecipIn,Conditions,Clouds,dailyrainin,SoftwareType,DateUTC
2013-03-22 00:00:00,29.9,18.4,29.87,SSE,158,0.0,0.0,62,0.00,,,0.00,WUHU216HW,2013-03-22 04:00:00,
2013-03-22 00:05:00,29.7,18.6,29.86,SSE,158,0.0,0.0,63,0.00,,,0.00,WUHU216HW,2013-03-22 04:05:00,
2013-03-22 00:06:00,29.7,18.6,29.86,SSE,158,0.0,0.0,63,0.00,,,0.00,WUHU216HW,2013-03-22 04:06:00,
2013-03-22 00:07:00,29.7,18.6,29.87,SSE,158,0.0,0.0,63,0.00,,,0.00,WUHU216HW,2013-03-22 04:07:00,
2013-03-22 00:11:00,29.5,19.2,29.86,SSE,158,0.0,0.0,65,0.00,,,0.00,WUHU216HW,2013-03-22 04:11:00,
2013-03-22 00:12:00,29.7,19.0,29.86,SSE,158,0.0,0.0,64,0.00,,,0.00,WUHU216HW,2013-03-22 04:12:00,
2013-03-22 00:13:00,29.7,19.0,29.86,SSE,158,0.0,0.0,64,0.00,,,0.00,WUHU216HW,2013-03-22 04:13:00,
2013-03-22 00:18:00,29.7,19.4,29.86,SSE,158,0.0,0.0,65,0.00,,,0.00,WUHU216HW,2013-03-22 04:18:00,
2013-03-22 00:23:00,29.9,19.4,29.86,SSE,158,0.0,0.0,65,0.00,,,0.00,WUHU216HW,2013-03-22 04:23:00,
2013-03-22 00:24:00,29.9,19.4,29.86,SSE,158,0.0,0.0,65,0.00,,,0.00,WUHU216HW,2013-03-22 04:24:00,
2013-03-22 00:28:00,29.5,19.2,29.86,SSE,158,0.2,0.4,65,0.00,,,0.00,WUHU216HW,2013-03-22 04:28:00,
2013-03-22 00:29:00,29.5,19.2,29.86,SSE,158,0.3,0.4,65,0.00,,,0.00,WUHU216HW,2013-03-22 04:29:00,
2013-03-22 00:33:00,29.3,18.6,29.86,SSE,158,0.0,0.4,64,0.00,,,0.00,WUHU216HW,2013-03-22 04:33:00,
2013-03-22 00:34:00,29.3,18.6,29.86,SSE,158,0.0,0.4,64,0.00,,,0.00,WUHU216HW,2013-03-22 04:34:00,
2013-03-22 00:35:00,29.3,19.0,29.86,South,180,0.0,0.4,65,0.00,,,0.00,WUHU216HW,2013-03-22 04:35:00,
2013-03-22 00:38:00,29.5,19.2,29.86,NW,318,0.6,0.9,65,0.00,,,0.00,WUHU216HW,2013-03-22 04:38:00,
2013-03-22 00:39:00,29.5,19.2,29.86,WNW,302,0.5,0.9,65,0.00,,,0.00,WUHU216HW,2013-03-22 04:39:00,
2013-03-22 00:41:00,29.7,19.7,29.86,West,270,0.0,0.9,66,0.00,,,0.00,WUHU216HW,2013-03-22 04:41:00,
2013-03-22 00:44:00,29.7,19.7,29.86,WNW,299,0.2,0.9,66,0.00,,,0.00,WUHU216HW,2013-03-22 04:44:00,
2013-03-22 00:45:00,29.5,19.5,29.86,WNW,293,0.2,0.9,66,0.00,,,0.00,WUHU216HW,2013-03-22 04:45:00,
2013-03-22 00:47:00,29.5,19.5,29.86,WNW,293,0.0,0.4,66,0.00,,,0.00,WUHU216HW,2013-03-22 04:47:00,
2013-03-22 00:49:00,29.5,19.5,29.86,West,270,0.0,0.4,66,0.00,,,0.00,WUHU216HW,2013-03-22 04:49:00,
2013-03-22 00:50:00,29.5,19.5,29.86,West,270,0.0,0.4,66,0.00,,,0.00,WUHU216HW,2013-03-22 04:50:00,
2013-03-22 00:51:00,29.5,19.5,29.86,West,270,0.0,0.4,66,0.00,,,0.00,WUHU216HW,2013-03-22 04:51:00,
2013-03-22 00:52:00,29.3,19.4,29.86,West,270,0.0,0.4,66,0.00,,,0.00,WUHU216HW,2013-03-22 04:52:00,
2013-03-22 00:55:00,29.3,19.7,29.86,West,263,0.4,1.1,67,0.00,,,0.00,WUHU216HW,2013-03-22 04:55:00,
2013-03-22 00:57:00,29.3,19.7,29.86,WSW,248,1.3,1.3,67,0.00,,,0.00,WUHU216HW,2013-03-22 04:57:00,
2013-03-22 00:58:00,29.2,19.5,29.86,West,273,0.8,1.3,67,0.00,,,0.00,WUHU216HW,2013-03-22 04:58:00,
2013-03-22 01:01:00,29.2,20.3,29.86,WNW,293,0.4,1.3,69,0.00,,,0.00,WUHU216HW,2013-03-22 05:01:00,
2013-03-22 01:02:00,29.2,20.6,29.87,WNW,293,0.9,1.3,70,0.00,,,0.00,WUHU216HW,2013-03-22 05:02:00,
2013-03-22 01:03:00,29.2,20.3,29.87,West,270,1.3,1.6,69,0.00,,,0.00,WUHU216HW,2013-03-22 05:03:00,
2013-03-22 01:06:00,29.2,20.3,29.87,West,273,1.3,1.8,69,0.00,,,0.00,WUHU216HW,2013-03-22 05:06:00,
2013-03-22 01:08:00,29.2,20.3,29.87,West,270,1.1,1.8,69,0.00,,,0.00,WUHU216HW,2013-03-22 05:08:00,
2013-03-22 01:09:00,29.2,20.3,29.87,West,278,0.7,1.8,69,0.00,,,0.00,WUHU216HW,2013-03-22 05:09:00,
2013-03-22 01:11:00,29.2,20.3,29.87,NW,307,0.4,1.8,69,0.00,,,0.00,WUHU216HW,2013-03-22 05:11:00,
2013-03-22 01:12:00,29.2,19.9,29.87,NW,304,0.3,1.8,68,0.00,,,0.00,WUHU216HW,2013-03-22 05:12:00,
2013-03-22 01:13:00,29.0,19.7,29.87,North,0,0.2,1.8,68,0.00,,,0.00,WUHU216HW,2013-03-22 05:13:00,
2013-03-22 01:14:00,29.0,19.7,29.87,NW,315,0.0,1.8,68,0.00,,,0.00,WUHU216HW,2013-03-22 05:14:00,
2013-03-22 01:18:00,28.8,19.6,29.87,NW,315,0.0,1.1,68,0.00,,,0.00,WUHU216HW,2013-03-22 05:18:00,
2013-03-22 01:19:00,28.8,19.6,29.87,NNE,23,0.0,0.7,68,0.00,,,0.00,WUHU216HW,2013-03-22 05:19:00,
2013-03-22 01:20:00,28.8,19.3,29.87,NNE,23,0.0,0.4,67,0.00,,,0.00,WUHU216HW,2013-03-22 05:20:00,
2013-03-22 01:23:00,28.6,19.5,29.86,NE,45,0.0,0.0,68,0.00,,,0.00,WUHU216HW,2013-03-22 05:23:00,
2013-03-22 01:24:00,28.6,19.5,29.87,NE,45,0.0,0.0,68,0.00,,,0.00,WUHU216HW,2013-03-22 05:24:00,
2013-03-22 01:27:00,28.8,19.6,29.87,NE,45,0.0,0.0,68,0.00,,,0.00,WUHU216HW,2013-03-22 05:27:00,
2013-03-22 01:29:00,28.8,19.6,29.87,NE,45,0.0,0.0,68,0.00,,,0.00,WUHU216HW,2013-03-22 05:29:00,
2013-03-22 01:32:00,28.6,19.1,29.87,NE,45,0.0,0.0,67,0.00,,,0.00,WUHU216HW,2013-03-22 05:32:00,
2013-03-22 01:34:00,28.6,19.5,29.87,NE,45,0.0,0.0,68,0.00,,,0.00,WUHU216HW,2013-03-22 05:34:00,
2013-03-22 01:35:00,28.6,19.5,29.87,NE,45,0.0,0.0,68,0.00,,,0.00,WUHU216HW,2013-03-22 05:35:00,
2013-03-22 01:37:00,28.6,19.5,29.87,North,0,0.0,0.0,68,0.00,,,0.00,WUHU216HW,2013-03-22 05:37:00,
2013-03-22 01:39:00,28.8,20.0,29.87,North,0,0.0,0.0,69,0.00,,,0.00,WUHU216HW,2013-03-22 05:39:00,
2013-03-22 01:40:00,28.8,19.6,29.87,North,0,0.0,0.0,68,0.00,,,0.00,WUHU216HW,2013-03-22 05:40:00,
2013-03-22 01:43:00,28.6,19.5,29.87,NNW,338,0.0,0.0,68,0.00,,,0.00,WUHU216HW,2013-03-22 05:43:00,
2013-03-22 01:45:00,28.8,20.0,29.87,WNW,293,0.0,0.0,69,0.00,,,0.00,WUHU216HW,2013-03-22 05:45:00,
2013-03-22 01:46:00,28.8,20.0,29.87,WNW,293,0.0,0.0,69,0.00,,,0.00,WUHU216HW,2013-03-22 05:46:00,
2013-03-22 01:47:00,28.8,20.0,29.87,WNW,293,0.0,0.0,69,0.00,,,0.00,WUHU216HW,2013-03-22 05:47:00,
2013-03-22 01:50:00,28.8,19.6,29.87,WNW,293,0.0,0.0,68,0.00,,,0.00,WUHU216HW,2013-03-22 05:50:00,
2013-03-22 01:52:00,28.8,19.6,29.87,WNW,293,0.0,0.0,68,0.00,,,0.00,WUHU216HW,2013-03-22 05:52:00,
2013-03-22 01:55:00,28.8,20.0,29.87,WNW,293,0.0,0.0,69,0.00,,,0.00,WUHU216HW,2013-03-22 05:55:00,
2013-03-22 01:57:00,28.8,20.0,29.88,WNW,293,0.0,0.0,69,0.00,,,0.00,WUHU216HW,2013-03-22 05:57:00,
2013-03-22 01:58:00,28.8,19.6,29.88,WNW,293,0.0,0.0,68,0.00,,,0.00,WUHU216HW,2013-03-22 05:58:00,
2013-03-22 02:00:00,28.8,19.6,29.88,WNW,293,0.0,0.0,68,0.00,,,0.00,WUHU216HW,2013-03-22 06:00:00,
2013-03-22 02:02:00,28.8,20.0,29.88,WNW,293,0.0,0.0,69,0.00,,,0.00,WUHU216HW,2013-03-22 06:02:00,
2013-03-22 02:03:00,28.8,20.0,29.88,WNW,293,0.0,0.0,69,0.00,,,0.00,WUHU216HW,2013-03-22 06:03:00,
2013-03-22 02:04:00,28.8,20.0,29.88,WNW,293,0.0,0.0,69,0.00,,,0.00,WUHU216HW,2013-03-22 06:04:00,
2013-03-22 02:05:00,28.8,20.0,29.88,WNW,293,0.0,0.0,69,0.00,,,0.00,WUHU216HW,2013-03-22 06:05:00,
2013-03-22 02:08:00,28.8,20.0,29.88,WNW,293,0.0,0.0,69,0.00,,,0.00,WUHU216HW,2013-03-22 06:08:00,
2013-03-22 02:10:00,28.8,19.6,29.88,WNW,293,0.0,0.0,68,0.00,,,0.00,WUHU216HW,2013-03-22 06:10:00,
2013-03-22 02:11:00,28.8,19.6,29.88,WNW,293,0.0,0.0,68,0.00,,,0.00,WUHU216HW,2013-03-22 06:11:00,
2013-03-22 02:13:00,29.0,20.1,29.89,ENE,68,0.0,0.0,69,0.00,,,0.00,WUHU216HW,2013-03-22 06:13:00,
2013-03-22 02:14:00,29.0,20.1,29.89,ENE,68,0.0,0.0,69,0.00,,,0.00,WUHU216HW,2013-03-22 06:14:00,
2013-03-22 02:15:00,29.0,20.1,29.89,ENE,68,0.0,0.0,69,0.00,,,0.00,WUHU216HW,2013-03-22 06:15:00,
2013-03-22 02:17:00,29.0,20.1,29.89,ENE,68,0.0,0.0,69,0.00,,,0.00,WUHU216HW,2013-03-22 06:17:00,
2013-03-22 02:19:00,29.2,20.3,29.89,ENE,68,0.0,0.0,69,0.00,,,0.00,WUHU216HW,2013-03-22 06:19:00,
2013-03-22 02:21:00,29.2,19.9,29.89,East,90,0.0,0.0,68,0.00,,,0.00,WUHU216HW,2013-03-22 06:21:00,
2013-03-22 02:22:00,29.2,19.9,29.89,East,90,0.0,0.0,68,0.00,,,0.00,WUHU216HW,2013-03-22 06:22:00,
2013-03-22 02:24:00,29.2,19.9,29.89,East,90,0.0,0.0,68,0.00,,,0.00,WUHU216HW,2013-03-22 06:24:00,
2013-03-22 02:26:00,29.2,19.9,29.89,East,90,0.0,0.0,68,0.00,,,0.00,WUHU216HW,2013-03-22 06:26:00,
2013-03-22 02:28:00,29.2,20.3,29.89,East,90,0.4,0.4,69,0.00,,,0.00,WUHU216HW,2013-03-22 06:28:00,
2013-03-22 02:29:00,29.3,20.8,29.89,East,90,0.4,0.4,70,0.00,,,0.00,WUHU216HW,2013-03-22 06:29:00,
2013-03-22 02:31:00,29.3,20.4,29.88,East,90,0.2,0.4,69,0.00,,,0.00,WUHU216HW,2013-03-22 06:31:00,
2013-03-22 02:33:00,29.5,20.6,29.88,East,90,0.0,0.4,69,0.00,,,0.00,WUHU216HW,2013-03-22 06:33:00,
2013-03-22 02:34:00,29.3,20.1,29.89,East,90,0.0,0.4,68,0.00,,,0.00,WUHU216HW,2013-03-22 06:34:00,
2013-03-22 02:35:00,29.5,20.6,29.88,East,90,0.2,0.4,69,0.00,,,0.00,WUHU216HW,2013-03-22 06:35:00,
2013-03-22 02:37:00,29.5,20.6,29.88,East,90,0.2,0.4,69,0.00,,,0.00,WUHU216HW,2013-03-22 06:37:00,
2013-03-22 02:38:00,29.5,20.3,29.88,East,90,0.0,0.4,68,0.00,,,0.00,WUHU216HW,2013-03-22 06:38:00,
2013-03-22 02:39:00,29.5,20.3,29.88,East,90,0.0,0.4,68,0.00,,,0.00,WUHU216HW,2013-03-22 06:39:00,
2013-03-22 02:40:00,29.5,20.3,29.88,East,90,0.0,0.4,68,0.00,,,0.00,WUHU216HW,2013-03-22 06:40:00,
2013-03-22 02:42:00,29.5,20.3,29.88,East,90,0.0,0.4,68,0.00,,,0.00,WUHU216HW,2013-03-22 06:42:00,
2013-03-22 02:44:00,29.7,20.4,29.88,East,90,0.0,0.4,68,0.00,,,0.00,WUHU216HW,2013-03-22 06:44:00,
2013-03-22 02:45:00,29.7,20.4,29.88,East,90,0.0,0.2,68,0.00,,,0.00,WUHU216HW,2013-03-22 06:45:00,
2013-03-22 02:48:00,29.9,20.5,29.88,East,90,0.0,0.0,68,0.00,,,0.00,WUHU216HW,2013-03-22 06:48:00,
2013-03-22 02:49:00,29.9,20.5,29.88,East,90,0.0,0.0,68,0.00,,,0.00,WUHU216HW,2013-03-22 06:49:00,
2013-03-22 02:50:00,29.9,20.5,29.88,East,90,0.0,0.0,68,0.00,,,0.00,WUHU216HW,2013-03-22 06:50:00,
2013-03-22 02:53:00,29.9,20.5,29.88,East,90,0.4,0.7,68,0.00,,,0.00,WUHU216HW,2013-03-22 06:53:00,
2013-03-22 02:55:00,30.1,20.7,29.88,East,90,0.0,0.7,68,0.00,,,0.00,WUHU216HW,2013-03-22 06:55:00,
2013-03-22 02:58:00,30.2,20.9,29.88,East,90,0.0,0.7,68,0.00,,,0.00,WUHU216HW,2013-03-22 06:58:00,
2013-03-22 03:00:00,30.2,20.9,29.88,East,90,0.0,0.7,68,0.00,,,0.00,WUHU216HW,2013-03-22 07:00:00,
2013-03-22 03:02:00,30.2,20.9,29.88,East,90,0.0,0.0,68,0.00,,,0.00,WUHU216HW,2013-03-22 07:02:00,
2013-03-22 03:04:00,30.2,20.9,29.88,East,90,0.0,0.0,68,0.00,,,0.00,WUHU216HW,2013-03-22 07:04:00,
2013-03-22 03:05:00,30.4,21.1,29.88,East,90,0.0,0.0,68,0.00,,,0.00,WUHU216HW,2013-03-22 07:05:00,
2013-03-22 03:08:00,30.4,21.1,29.88,East,90,0.0,0.0,68,0.00,,,0.00,WUHU216HW,2013-03-22 07:08:00,
2013-03-22 03:09:00,30.6,21.2,29.88,East,90,0.0,0.0,68,0.00,,,0.00,WUHU216HW,2013-03-22 07:09:00,
2013-03-22 03:10:00,30.6,21.2,29.88,East,90,0.0,0.0,68,0.00,,,0.00,WUHU216HW,2013-03-22 07:10:00,
2013-03-22 03:13:00,30.6,21.2,29.87,East,90,0.0,0.0,68,0.00,,,0.00,WUHU216HW,2013-03-22 07:13:00,
2013-03-22 03:14:00,30.6,21.2,29.87,East,90,0.0,0.0,68,0.00,,,0.00,WUHU216HW,2013-03-22 07:14:00,
2013-03-22 03:15:00,30.6,21.2,29.87,East,90,0.0,0.0,68,0.00,,,0.00,WUHU216HW,2013-03-22 07:15:00,
2013-03-22 03:18:00,30.8,21.4,29.87,East,90,0.0,0.0,68,0.00,,,0.00,WUHU216HW,2013-03-22 07:18:00,
2013-03-22 03:19:00,30.8,21.4,29.87,East,90,0.0,0.0,68,0.00,,,0.00,WUHU216HW,2013-03-22 07:19:00,
2013-03-22 03:20:00,31.0,21.6,29.87,East,90,0.0,0.0,68,0.00,,,0.00,WUHU216HW,2013-03-22 07:20:00,
2013-03-22 03:22:00,31.0,21.2,29.87,East,90,0.0,0.0,67,0.00,,,0.00,WUHU216HW,2013-03-22 07:22:00,
2013-03-22 03:24:00,31.0,21.6,29.87,NE,45,4.0,4.0,68,0.00,,,0.00,WUHU216HW,2013-03-22 07:24:00,
2013-03-22 03:26:00,31.1,22.5,29.87,NE,44,3.3,4.0,70,0.00,,,0.00,WUHU216HW,2013-03-22 07:26:00,
2013-03-22 03:27:00,31.1,22.1,29.87,NNE,28,0.8,4.0,69,0.00,,,0.00,WUHU216HW,2013-03-22 07:27:00,
2013-03-22 03:29:00,31.1,21.8,29.87,North,0,0.0,4.0,68,0.00,,,0.00,WUHU216HW,2013-03-22 07:29:00,
2013-03-22 03:31:00,31.1,21.4,29.87,WNW,293,0.0,4.0,67,0.00,,,0.00,WUHU216HW,2013-03-22 07:31:00,
2013-03-22 03:32:00,31.1,21.4,29.87,WNW,293,0.0,4.0,67,0.00,,,0.00,WUHU216HW,2013-03-22 07:32:00,
2013-03-22 03:34:00,31.3,21.6,29.87,ENE,68,0.2,4.0,67,0.00,,,0.00,WUHU216HW,2013-03-22 07:34:00,
2013-03-22 03:35:00,31.3,21.2,29.87,NE,46,1.0,2.0,66,0.00,,,0.00,WUHU216HW,2013-03-22 07:35:00,
2013-03-22 03:37:00,31.3,21.2,29.87,NE,45,1.2,1.6,66,0.00,,,0.00,WUHU216HW,2013-03-22 07:37:00,
2013-03-22 03:38:00,31.3,21.2,29.87,North,5,0.5,1.6,66,0.00,,,0.00,WUHU216HW,2013-03-22 07:38:00,
2013-03-22 03:40:00,31.3,21.2,29.87,NNE,23,0.7,1.6,66,0.00,,,0.00,WUHU216HW,2013-03-22 07:40:00,
2013-03-22 03:42:00,31.3,21.2,29.86,NNE,23,0.9,1.8,66,0.00,,,0.00,WUHU216HW,2013-03-22 07:42:00,
2013-03-22 03:44:00,31.5,21.4,29.86,NNE,23,0.8,1.8,66,0.00,,,0.00,WUHU216HW,2013-03-22 07:44:00,
2013-03-22 03:46:00,31.5,21.4,29.86,NNE,23,0.4,1.8,66,0.00,,,0.00,WUHU216HW,2013-03-22 07:46:00,
2013-03-22 03:47:00,31.5,21.4,29.86,NNW,338,0.0,1.8,66,0.00,,,0.00,WUHU216HW,2013-03-22 07:47:00,
2013-03-22 03:48:00,31.5,21.4,29.86,West,270,0.0,1.8,66,0.00,,,0.00,WUHU216HW,2013-03-22 07:48:00,
2013-03-22 03:50:00,31.7,21.6,29.86,NW,315,0.0,1.8,66,0.00,,,0.00,WUHU216HW,2013-03-22 07:50:00,
2013-03-22 03:51:00,31.7,21.6,29.86,NW,315,0.0,1.8,66,0.00,,,0.00,WUHU216HW,2013-03-22 07:51:00,
2013-03-22 03:52:00,31.7,21.6,29.86,WNW,293,0.0,1.1,66,0.00,,,0.00,WUHU216HW,2013-03-22 07:52:00,
2013-03-22 03:54:00,31.7,21.6,29.87,West,270,0.0,0.4,66,0.00,,,0.00,WUHU216HW,2013-03-22 07:54:00,
2013-03-22 03:55:00,31.7,21.6,29.86,West,270,0.9,0.9,66,0.00,,,0.00,WUHU216HW,2013-03-22 07:55:00,
2013-03-22 03:56:00,31.7,21.6,29.86,West,270,0.9,0.9,66,0.00,,,0.00,WUHU216HW,2013-03-22 07:56:00,
2013-03-22 03:58:00,31.7,21.6,29.87,West,267,0.4,0.9,66,0.00,,,0.00,WUHU216HW,2013-03-22 07:58:00,
2013-03-22 04:00:00,31.7,21.6,29.86,NW,315,0.4,0.9,66,0.00,,,0.00,WUHU216HW,2013-03-22 08:00:00,
2013-03-22 04:01:00,31.7,21.6,29.86,WNW,293,0.7,0.9,66,0.00,,,0.00,WUHU216HW,2013-03-22 08:01:00,
2013-03-22 04:02:00,31.7,21.6,29.86,WNW,295,0.4,0.9,66,0.00,,,0.00,WUHU216HW,2013-03-22 08:02:00,
2013-03-22 04:03:00,31.9,21.8,29.87,WNW,293,0.3,0.9,66,0.00,,,0.00,WUHU216HW,2013-03-22 08:03:00,
2013-03-22 04:06:00,31.9,21.8,29.87,WNW,283,0.5,0.9,66,0.00,,,0.00,WUHU216HW,2013-03-22 08:06:00,
2013-03-22 04:09:00,31.9,21.8,29.87,NW,315,0.5,0.9,66,0.00,,,0.00,WUHU216HW,2013-03-22 08:09:00,
2013-03-22 04:12:00,31.7,21.6,29.87,NNW,338,0.0,0.9,66,0.00,,,0.00,WUHU216HW,2013-03-22 08:12:00,
2013-03-22 04:14:00,31.9,21.8,29.87,NNW,338,0.0,0.9,66,0.00,,,0.00,WUHU216HW,2013-03-22 08:14:00,
2013-03-22 04:17:00,31.9,21.8,29.87,NNW,334,0.5,0.7,66,0.00,,,0.00,WUHU216HW,2013-03-22 08:17:00,
2013-03-22 04:18:00,31.7,21.6,29.87,North,0,0.9,0.9,66,0.00,,,0.00,WUHU216HW,2013-03-22 08:18:00,
2013-03-22 04:19:00,31.9,21.8,29.87,NW,315,0.9,0.9,66,0.00,,,0.00,WUHU216HW,2013-03-22 08:19:00,
2013-03-22 04:23:00,31.9,21.8,29.87,WNW,285,0.4,1.6,66,0.00,,,0.00,WUHU216HW,2013-03-22 08:23:00,
2013-03-22 04:24:00,31.9,21.8,29.87,NW,315,0.4,1.6,66,0.00,,,0.00,WUHU216HW,2013-03-22 08:24:00,
2013-03-22 04:25:00,31.9,22.1,29.87,West,270,0.4,1.6,67,0.00,,,0.00,WUHU216HW,2013-03-22 08:25:00,
2013-03-22 04:29:00,32.0,22.0,29.87,West,270,0.0,1.6,66,0.00,,,0.00,WUHU216HW,2013-03-22 08:29:00,
2013-03-22 04:30:00,32.0,22.0,29.87,West,270,0.0,1.6,66,0.00,,,0.00,WUHU216HW,2013-03-22 08:30:00,
2013-03-22 04:32:00,32.0,22.3,29.87,West,280,0.4,0.4,67,0.00,,,0.00,WUHU216HW,2013-03-22 08:32:00,
2013-03-22 04:35:00,32.0,22.3,29.88,West,280,0.4,0.7,67,0.00,,,0.00,WUHU216HW,2013-03-22 08:35:00,
2013-03-22 04:38:00,32.2,22.2,29.87,West,270,0.9,1.1,66,0.00,,,0.00,WUHU216HW,2013-03-22 08:38:00,
2013-03-22 04:40:00,32.2,22.2,29.87,WNW,295,0.5,1.1,66,0.00,,,0.00,WUHU216HW,2013-03-22 08:40:00,
2013-03-22 04:41:00,32.2,22.2,29.87,NNW,338,0.5,1.1,66,0.00,,,0.00,WUHU216HW,2013-03-22 08:41:00,
2013-03-22 04:43:00,32.4,22.3,29.87,NNW,338,0.2,1.1,66,0.00,,,0.00,WUHU216HW,2013-03-22 08:43:00,
2013-03-22 04:44:00,32.2,22.2,29.87,NNW,338,0.0,1.1,66,0.00,,,0.00,WUHU216HW,2013-03-22 08:44:00,
2013-03-22 04:45:00,32.4,22.3,29.87,WNW,293,0.0,1.1,66,0.00,,,0.00,WUHU216HW,2013-03-22 08:45:00,
2013-03-22 04:47:00,32.4,22.0,29.87,NW,315,0.0,1.1,65,0.00,,,0.00,WUHU216HW,2013-03-22 08:47:00,
2013-03-22 04:49:00,32.4,22.0,29.87,NNW,338,0.0,1.1,65,0.00,,,0.00,WUHU216HW,2013-03-22 08:49:00,
2013-03-22 04:50:00,32.4,22.0,29.87,NNW,338,0.0,1.1,65,0.00,,,0.00,WUHU216HW,2013-03-22 08:50:00,
2013-03-22 04:52:00,32.6,21.7,29.87,West,270,1.1,1.8,64,0.00,,,0.00,WUHU216HW,2013-03-22 08:52:00,
2013-03-22 04:53:00,32.6,21.7,29.87,West,277,1.1,1.8,64,0.00,,,0.00,WUHU216HW,2013-03-22 08:53:00,
2013-03-22 04:54:00,32.6,21.7,29.88,West,270,0.9,1.8,64,0.00,,,0.00,WUHU216HW,2013-03-22 08:54:00,
2013-03-22 04:57:00,32.6,21.7,29.88,West,274,0.5,1.8,64,0.00,,,0.00,WUHU216HW,2013-03-22 08:57:00,
2013-03-22 04:58:00,32.8,21.9,29.87,NW,318,0.5,1.8,64,0.00,,,0.00,WUHU216HW,2013-03-22 08:58:00,
2013-03-22 04:59:00,32.8,21.9,29.87,NW,318,0.5,1.8,64,0.00,,,0.00,WUHU216HW,2013-03-22 08:59:00,
2013-03-22 05:02:00,32.8,21.9,29.87,North,0,0.4,0.9,64,0.00,,,0.00,WUHU216HW,2013-03-22 09:02:00,
2013-03-22 05:04:00,32.8,21.9,29.87,North,0,0.0,0.9,64,0.00,,,0.00,WUHU216HW,2013-03-22 09:04:00,
2013-03-22 05:05:00,32.8,21.5,29.87,North,0,1.6,1.6,63,0.00,,,0.00,WUHU216HW,2013-03-22 09:05:00,
2013-03-22 05:09:00,32.8,21.5,29.87,NNE,19,0.6,2.5,63,0.00,,,0.00,WUHU216HW,2013-03-22 09:09:00,
2013-03-22 05:10:00,32.8,21.5,29.87,NNE,23,0.4,2.5,63,0.00,,,0.00,WUHU216HW,2013-03-22 09:10:00,
2013-03-22 05:11:00,32.8,21.5,29.87,NNE,23,1.3,2.5,63,0.00,,,0.00,WUHU216HW,2013-03-22 09:11:00,
2013-03-22 05:15:00,32.8,21.2,29.87,NNW,338,1.8,2.5,62,0.00,,,0.00,WUHU216HW,2013-03-22 09:15:00,
2013-03-22 05:16:00,32.8,21.2,29.87,NNW,338,1.3,2.5,62,0.00,,,0.00,WUHU216HW,2013-03-22 09:16:00,
2013-03-22 05:20:00,32.8,21.2,29.87,NW,315,1.1,1.8,62,0.00,,,0.00,WUHU216HW,2013-03-22 09:20:00,
2013-03-22 05:21:00,32.8,21.2,29.87,NW,315,1.6,1.8,62,0.00,,,0.00,WUHU216HW,2013-03-22 09:21:00,
2013-03-22 05:23:00,32.8,21.2,29.87,NNW,336,0.5,1.8,62,0.00,,,0.00,WUHU216HW,2013-03-22 09:23:00,
2013-03-22 05:25:00,32.8,21.2,29.87,WNW,293,0.9,1.6,62,0.00,,,0.00,WUHU216HW,2013-03-22 09:25:00,
2013-03-22 05:26:00,32.8,21.2,29.87,WNW,293,1.1,1.6,62,0.00,,,0.00,WUHU216HW,2013-03-22 09:26:00,
2013-03-22 05:28:00,32.8,21.2,29.87,WNW,293,1.1,1.6,62,0.00,,,0.00,WUHU216HW,2013-03-22 09:28:00,
2013-03-22 05:31:00,32.8,21.2,29.87,NW,315,1.1,1.1,62,0.00,,,0.00,WUHU216HW,2013-03-22 09:31:00,
2013-03-22 05:32:00,32.8,21.2,29.87,NNW,338,1.1,1.3,62,0.00,,,0.00,WUHU216HW,2013-03-22 09:32:00,
2013-03-22 05:33:00,32.8,21.2,29.87,NW,311,0.8,1.3,62,0.00,,,0.00,WUHU216HW,2013-03-22 09:33:00,
2013-03-22 05:34:00,32.8,21.2,29.87,WNW,293,0.9,1.6,62,0.00,,,0.00,WUHU216HW,2013-03-22 09:34:00,
2013-03-22 05:36:00,32.8,21.2,29.87,WNW,301,0.7,1.6,62,0.00,,,0.00,WUHU216HW,2013-03-22 09:36:00,
2013-03-22 05:38:00,32.8,21.2,29.87,North,0,1.8,1.8,62,0.00,,,0.00,WUHU216HW,2013-03-22 09:38:00,
2013-03-22 05:39:00,32.8,20.8,29.87,NNW,346,1.1,1.8,61,0.00,,,0.00,WUHU216HW,2013-03-22 09:39:00,
2013-03-22 05:41:00,32.8,20.8,29.87,NW,326,0.9,1.8,61,0.00,,,0.00,WUHU216HW,2013-03-22 09:41:00,
2013-03-22 05:44:00,32.8,20.8,29.87,NW,314,0.5,1.8,61,0.00,,,0.00,WUHU216HW,2013-03-22 09:44:00,
2013-03-22 05:45:00,32.8,20.8,29.87,NNW,338,1.6,2.5,61,0.00,,,0.00,WUHU216HW,2013-03-22 09:45:00,
2013-03-22 05:47:00,32.8,20.8,29.87,NW,316,1.5,2.5,61,0.00,,,0.00,WUHU216HW,2013-03-22 09:47:00,
2013-03-22 05:49:00,32.8,20.8,29.87,NNW,330,1.0,2.5,61,0.00,,,0.00,WUHU216HW,2013-03-22 09:49:00,
2013-03-22 05:50:00,32.8,20.8,29.87,NW,323,0.7,2.5,61,0.00,,,0.00,WUHU216HW,2013-03-22 09:50:00,
2013-03-22 05:52:00,32.8,20.4,29.87,NW,315,0.7,2.5,60,0.00,,,0.00,WUHU216HW,2013-03-22 09:52:00,
2013-03-22 05:55:00,32.9,20.6,29.87,West,270,0.4,1.8,60,0.00,,,0.00,WUHU216HW,2013-03-22 09:55:00,
2013-03-22 05:56:00,32.9,21.0,29.88,WNW,293,0.9,1.8,61,0.00,,,0.00,WUHU216HW,2013-03-22 09:56:00,
2013-03-22 05:58:00,32.9,20.6,29.88,NW,304,1.2,1.6,60,0.00,,,0.00,WUHU216HW,2013-03-22 09:58:00,
2013-03-22 06:01:00,32.9,20.6,29.88,WNW,297,0.6,1.6,60,0.00,,,0.00,WUHU216HW,2013-03-22 10:01:00,
2013-03-22 06:05:00,32.9,20.6,29.88,NNW,348,0.5,1.6,60,0.00,,,0.00,WUHU216HW,2013-03-22 10:05:00,
2013-03-22 06:06:00,32.9,20.6,29.88,North,0,2.0,2.0,60,0.00,,,0.00,WUHU216HW,2013-03-22 10:06:00,
2013-03-22 06:07:00,32.9,20.6,29.88,North,2,0.8,2.0,60,0.00,,,0.00,WUHU216HW,2013-03-22 10:07:00,
2013-03-22 06:10:00,32.9,20.2,29.88,North,1,1.1,2.0,59,0.00,,,0.00,WUHU216HW,2013-03-22 10:10:00,
2013-03-22 06:11:00,32.9,20.2,29.88,North,0,0.9,2.0,59,0.00,,,0.00,WUHU216HW,2013-03-22 10:11:00,
2013-03-22 06:13:00,32.9,20.2,29.88,North,359,1.3,2.0,59,0.00,,,0.00,WUHU216HW,2013-03-22 10:13:00,
2013-03-22 06:14:00,32.9,20.2,29.88,NNW,343,1.0,2.0,59,0.00,,,0.00,WUHU216HW,2013-03-22 10:14:00,
2013-03-22 06:16:00,33.1,20.3,29.88,NNW,338,1.1,2.0,59,0.00,,,0.00,WUHU216HW,2013-03-22 10:16:00,
2013-03-22 06:17:00,33.1,20.3,29.89,North,0,1.1,2.0,59,0.00,,,0.00,WUHU216HW,2013-03-22 10:17:00,
2013-03-22 06:18:00,33.1,20.3,29.89,North,351,0.9,2.0,59,0.00,,,0.00,WUHU216HW,2013-03-22 10:18:00,
2013-03-22 06:19:00,33.1,20.3,29.89,NNW,340,0.6,2.0,59,0.00,,,0.00,WUHU216HW,2013-03-22 10:19:00,
2013-03-22 06:22:00,33.1,19.9,29.89,North,0,0.9,2.0,58,0.00,,,0.00,WUHU216HW,2013-03-22 10:22:00,
2013-03-22 06:23:00,33.1,19.9,29.89,NNW,330,1.0,1.3,58,0.00,,,0.00,WUHU216HW,2013-03-22 10:23:00,
2013-03-22 06:24:00,33.1,19.9,29.89,NNW,338,0.6,1.3,58,0.00,,,0.00,WUHU216HW,2013-03-22 10:24:00,
2013-03-22 06:28:00,33.1,19.9,29.89,WNW,284,0.7,1.3,58,0.00,,,0.00,WUHU216HW,2013-03-22 10:28:00,
2013-03-22 06:29:00,33.1,19.9,29.89,WNW,300,0.7,1.3,58,0.00,,,0.00,WUHU216HW,2013-03-22 10:29:00,
2013-03-22 06:30:00,33.1,19.9,29.89,NNW,338,2.7,2.7,58,0.00,,,0.00,WUHU216HW,2013-03-22 10:30:00,
2013-03-22 06:34:00,33.1,19.1,29.89,NNE,23,1.1,2.7,56,0.00,,,0.00,WUHU216HW,2013-03-22 10:34:00,
2013-03-22 06:35:00,33.1,19.4,29.89,NNW,335,1.3,2.7,57,0.00,,,0.00,WUHU216HW,2013-03-22 10:35:00,
2013-03-22 06:36:00,33.1,19.1,29.89,NNW,331,1.0,2.7,56,0.00,,,0.00,WUHU216HW,2013-03-22 10:36:00,
2013-03-22 06:39:00,33.3,19.2,29.89,NNW,338,0.7,2.7,56,0.00,,,0.00,WUHU216HW,2013-03-22 10:39:00,
2013-03-22 06:40:00,33.1,19.1,29.89,NNW,338,1.1,1.6,56,0.00,,,0.00,WUHU216HW,2013-03-22 10:40:00,
2013-03-22 06:42:00,33.3,19.2,29.89,NNW,342,0.5,1.6,56,0.00,,,0.00,WUHU216HW,2013-03-22 10:42:00,
2013-03-22 06:44:00,33.3,19.2,29.89,NNW,338,0.4,1.6,56,0.00,,,0.00,WUHU216HW,2013-03-22 10:44:00,
2013-03-22 06:45:00,33.3,19.2,29.89,NE,45,1.0,1.1,56,0.00,,,0.00,WUHU216HW,2013-03-22 10:45:00,
2013-03-22 06:47:00,33.3,19.2,29.89,NE,51,0.5,1.1,56,0.00,,,0.00,WUHU216HW,2013-03-22 10:47:00,
2013-03-22 06:48:00,33.3,19.2,29.89,ENE,63,0.3,1.1,56,0.00,,,0.00,WUHU216HW,2013-03-22 10:48:00,
2013-03-22 06:50:00,33.3,19.2,29.89,ENE,68,0.0,1.1,56,0.00,,,0.00,WUHU216HW,2013-03-22 10:50:00,
2013-03-22 06:51:00,33.3,19.2,29.89,ENE,68,0.0,1.1,56,0.00,,,0.00,WUHU216HW,2013-03-22 10:51:00,
2013-03-22 06:52:00,33.3,19.2,29.89,ENE,68,0.0,1.1,56,0.00,,,0.00,WUHU216HW,2013-03-22 10:52:00,
2013-03-22 06:54:00,33.5,19.8,29.89,WSW,248,0.0,1.1,57,0.00,,,0.00,WUHU216HW,2013-03-22 10:54:00,
2013-03-22 06:55:00,33.5,19.8,29.89,WSW,248,0.4,0.4,57,0.00,,,0.00,WUHU216HW,2013-03-22 10:55:00,
2013-03-22 06:57:00,33.5,19.8,29.89,WSW,248,0.7,0.9,57,0.00,,,0.00,WUHU216HW,2013-03-22 10:57:00,
2013-03-22 06:59:00,33.5,20.3,29.89,WSW,254,0.6,0.9,58,0.00,,,0.00,WUHU216HW,2013-03-22 10:59:00,
2013-03-22 07:00:00,33.5,20.3,29.89,West,270,0.4,0.9,58,0.00,,,0.00,WUHU216HW,2013-03-22 11:00:00,
2013-03-22 07:02:00,33.5,20.3,29.89,West,270,0.2,0.9,58,0.00,,,0.00,WUHU216HW,2013-03-22 11:02:00,
2013-03-22 07:04:00,33.5,20.3,29.89,NNE,23,0.0,0.9,58,0.00,,,0.00,WUHU216HW,2013-03-22 11:04:00,
2013-03-22 07:07:00,33.5,19.8,29.88,North,0,1.1,1.1,57,0.00,,,0.00,WUHU216HW,2013-03-22 11:07:00,
2013-03-22 07:09:00,33.5,19.8,29.89,NNE,13,0.6,1.8,57,0.00,,,0.00,WUHU216HW,2013-03-22 11:09:00,
2013-03-22 07:12:00,33.5,19.8,29.88,North,0,0.0,1.8,57,0.00,,,0.00,WUHU216HW,2013-03-22 11:12:00,
2013-03-22 07:13:00,33.5,19.8,29.88,NE,45,0.0,1.8,57,0.00,,,0.00,WUHU216HW,2013-03-22 11:13:00,
2013-03-22 07:15:00,33.5,19.8,29.88,ENE,57,0.6,1.8,57,0.00,,,0.00,WUHU216HW,2013-03-22 11:15:00,
2013-03-22 07:17:00,33.5,19.8,29.88,NNE,23,1.1,1.8,57,0.00,,,0.00,WUHU216HW,2013-03-22 11:17:00,
2013-03-22 07:18:00,33.5,19.8,29.88,NNE,23,1.8,1.8,57,0.00,,,0.00,WUHU216HW,2013-03-22 11:18:00,
2013-03-22 07:21:00,33.5,19.4,29.89,NW,315,0.9,1.8,56,0.00,,,0.00,WUHU216HW,2013-03-22 11:21:00,
2013-03-22 07:22:00,33.5,19.4,29.88,North,0,0.9,1.8,56,0.00,,,0.00,WUHU216HW,2013-03-22 11:22:00,
2013-03-22 07:23:00,33.5,19.4,29.88,NNW,327,0.7,1.8,56,0.00,,,0.00,WUHU216HW,2013-03-22 11:23:00,
2013-03-22 07:27:00,33.5,19.4,29.89,NNW,343,0.5,1.8,56,0.00,,,0.00,WUHU216HW,2013-03-22 11:27:00,
2013-03-22 07:28:00,33.5,19.4,29.89,NNE,23,0.9,1.8,56,0.00,,,0.00,WUHU216HW,2013-03-22 11:28:00,
2013-03-22 07:29:00,33.5,19.4,29.89,North,356,0.9,1.1,56,0.00,,,0.00,WUHU216HW,2013-03-22 11:29:00,
2013-03-22 07:32:00,33.5,19.4,29.89,North,352,0.9,1.1,56,0.00,,,0.00,WUHU216HW,2013-03-22 11:32:00,
2013-03-22 07:34:00,33.5,19.4,29.89,NNE,18,0.7,1.1,56,0.00,,,0.00,WUHU216HW,2013-03-22 11:34:00,
2013-03-22 07:36:00,33.5,19.4,29.89,North,0,0.4,1.1,56,0.00,,,0.00,WUHU216HW,2013-03-22 11:36:00,
2013-03-22 07:37:00,33.5,19.4,29.89,West,270,0.9,1.1,56,0.00,,,0.00,WUHU216HW,2013-03-22 11:37:00,
2013-03-22 07:39:00,33.5,19.4,29.89,WNW,293,1.1,1.1,56,0.00,,,0.00,WUHU216HW,2013-03-22 11:39:00,
2013-03-22 07:40:00,33.5,19.4,29.89,WNW,303,0.7,1.1,56,0.00,,,0.00,WUHU216HW,2013-03-22 11:40:00,
2013-03-22 07:42:00,33.5,19.4,29.90,NNW,338,1.1,1.1,56,0.00,,,0.00,WUHU216HW,2013-03-22 11:42:00,
2013-03-22 07:44:00,33.7,19.5,29.90,NNW,342,0.6,1.1,56,0.00,,,0.00,WUHU216HW,2013-03-22 11:44:00,
2013-03-22 07:45:00,33.7,19.5,29.90,North,354,0.4,1.1,56,0.00,,,0.00,WUHU216HW,2013-03-22 11:45:00,
2013-03-22 07:47:00,33.7,19.5,29.90,North,350,0.6,1.1,56,0.00,,,0.00,WUHU216HW,2013-03-22 11:47:00,
2013-03-22 07:48:00,33.7,19.5,29.90,North,0,0.6,1.1,56,0.00,,,0.00,WUHU216HW,2013-03-22 11:48:00,
2013-03-22 07:50:00,33.7,19.5,29.90,NE,45,1.1,1.1,56,0.00,,,0.00,WUHU216HW,2013-03-22 11:50:00,
2013-03-22 07:51:00,33.7,19.5,29.90,NNE,30,0.9,1.1,56,0.00,,,0.00,WUHU216HW,2013-03-22 11:51:00,
2013-03-22 07:53:00,33.7,19.5,29.90,NNW,343,0.4,1.1,56,0.00,,,0.00,WUHU216HW,2013-03-22 11:53:00,
2013-03-22 07:55:00,33.7,19.5,29.90,NNE,23,0.9,1.1,56,0.00,,,0.00,WUHU216HW,2013-03-22 11:55:00,
2013-03-22 07:56:00,33.7,19.5,29.90,West,270,1.1,1.1,56,0.00,,,0.00,WUHU216HW,2013-03-22 11:56:00,
2013-03-22 07:58:00,33.7,19.5,29.90,NW,315,0.7,1.1,56,0.00,,,0.00,WUHU216HW,2013-03-22 11:58:00,
2013-03-22 08:02:00,33.7,19.5,29.90,NNW,338,0.0,1.1,56,0.00,,,0.00,WUHU216HW,2013-03-22 12:02:00,
2013-03-22 08:04:00,33.7,19.5,29.90,NNW,338,0.0,1.1,56,0.00,,,0.00,WUHU216HW,2013-03-22 12:04:00,
2013-03-22 08:07:00,33.7,19.5,29.90,NW,315,1.6,1.6,56,0.00,,,0.00,WUHU216HW,2013-03-22 12:07:00,
2013-03-22 08:08:00,33.7,19.5,29.90,West,270,1.1,1.6,56,0.00,,,0.00,WUHU216HW,2013-03-22 12:08:00,
2013-03-22 08:09:00,33.7,19.5,29.90,WNW,295,0.7,1.6,56,0.00,,,0.00,WUHU216HW,2013-03-22 12:09:00,
2013-03-22 08:12:00,33.7,19.5,29.90,WNW,293,0.0,1.6,56,0.00,,,0.00,WUHU216HW,2013-03-22 12:12:00,
2013-03-22 08:13:00,33.8,19.7,29.90,NW,315,0.0,1.6,56,0.00,,,0.00,WUHU216HW,2013-03-22 12:13:00,
2013-03-22 08:14:00,33.8,19.7,29.90,NNW,338,0.0,1.6,56,0.00,,,0.00,WUHU216HW,2013-03-22 12:14:00,
2013-03-22 08:15:00,33.8,19.7,29.90,NNW,338,0.0,1.6,56,0.00,,,0.00,WUHU216HW,2013-03-22 12:15:00,
2013-03-22 08:19:00,33.8,19.7,29.90,NNW,338,0.0,0.0,56,0.00,,,0.00,WUHU216HW,2013-03-22 12:19:00,
2013-03-22 08:20:00,33.8,19.7,29.90,NW,315,0.0,0.0,56,0.00,,,0.00,WUHU216HW,2013-03-22 12:20:00,
2013-03-22 08:21:00,33.8,19.7,29.90,NW,315,0.0,0.0,56,0.00,,,0.00,WUHU216HW,2013-03-22 12:21:00,
2013-03-22 08:25:00,34.0,19.9,29.90,NW,315,0.0,0.2,56,0.00,,,0.00,WUHU216HW,2013-03-22 12:25:00,
2013-03-22 08:26:00,34.0,19.9,29.91,NW,315,0.0,0.2,56,0.00,,,0.00,WUHU216HW,2013-03-22 12:26:00,
2013-03-22 08:27:00,34.0,19.9,29.91,NNW,338,1.1,1.1,56,0.00,,,0.00,WUHU216HW,2013-03-22 12:27:00,
2013-03-22 08:30:00,34.2,20.1,29.91,NW,326,0.5,1.1,56,0.00,,,0.00,WUHU216HW,2013-03-22 12:30:00,
2013-03-22 08:32:00,34.2,19.6,29.91,NW,324,0.8,1.1,55,0.00,,,0.00,WUHU216HW,2013-03-22 12:32:00,
2013-03-22 08:36:00,34.2,20.1,29.91,NNW,343,0.2,1.1,56,0.00,,,0.00,WUHU216HW,2013-03-22 12:36:00,
2013-03-22 08:37:00,34.2,19.6,29.92,North,0,0.3,1.1,55,0.00,,,0.00,WUHU216HW,2013-03-22 12:37:00,
2013-03-22 08:38:00,34.2,19.6,29.92,North,0,0.3,1.1,55,0.00,,,0.00,WUHU216HW,2013-03-22 12:38:00,
2013-03-22 08:39:00,34.2,19.6,29.91,North,0,0.3,1.1,55,0.00,,,0.00,WUHU216HW,2013-03-22 12:39:00,
2013-03-22 08:42:00,34.4,19.8,29.91,NNE,23,0.9,1.6,55,0.00,,,0.00,WUHU216HW,2013-03-22 12:42:00,
2013-03-22 08:44:00,34.2,19.6,29.92,NNE,23,0.7,1.6,55,0.00,,,0.00,WUHU216HW,2013-03-22 12:44:00,
2013-03-22 08:47:00,34.2,19.6,29.91,North,0,0.8,1.6,55,0.00,,,0.00,WUHU216HW,2013-03-22 12:47:00,
2013-03-22 08:49:00,34.2,19.6,29.91,North,2,0.5,1.6,55,0.00,,,0.00,WUHU216HW,2013-03-22 12:49:00,
2013-03-22 08:50:00,34.2,19.6,29.91,NNE,15,0.3,1.6,55,0.00,,,0.00,WUHU216HW,2013-03-22 12:50:00,
2013-03-22 08:52:00,34.2,19.6,29.91,NNE,23,1.1,1.1,55,0.00,,,0.00,WUHU216HW,2013-03-22 12:52:00,
2013-03-22 08:54:00,34.4,19.8,29.91,NNE,17,1.8,2.5,55,0.00,,,0.00,WUHU216HW,2013-03-22 12:54:00,
2013-03-22 08:55:00,34.4,19.8,29.91,NE,34,1.0,2.5,55,0.00,,,0.00,WUHU216HW,2013-03-22 12:55:00,
2013-03-22 08:57:00,34.4,19.8,29.91,NNE,17,0.9,2.5,55,0.00,,,0.00,WUHU216HW,2013-03-22 12:57:00,
2013-03-22 08:58:00,34.4,19.8,29.92,NNE,12,1.0,2.5,55,0.00,,,0.00,WUHU216HW,2013-03-22 12:58:00,
2013-03-22 08:59:00,34.4,19.8,29.91,North,10,0.5,2.5,55,0.00,,,0.00,WUHU216HW,2013-03-22 12:59:00,
2013-03-22 09:01:00,34.6,20.0,29.92,North,350,0.4,2.5,55,0.00,,,0.00,WUHU216HW,2013-03-22 13:01:00,
2013-03-22 09:02:00,34.6,20.0,29.92,NW,315,1.3,2.5,55,0.00,,,0.00,WUHU216HW,2013-03-22 13:02:00,
2013-03-22 09:04:00,34.7,20.2,29.92,NW,318,0.8,1.8,55,0.00,,,0.00,WUHU216HW,2013-03-22 13:04:00,
2013-03-22 09:06:00,34.6,19.5,29.91,North,0,1.1,1.6,54,0.00,,,0.00,WUHU216HW,2013-03-22 13:06:00,
2013-03-22 09:07:00,34.7,19.7,29.91,North,8,0.8,1.6,54,0.00,,,0.00,WUHU216HW,2013-03-22 13:07:00,
2013-03-22 09:09:00,34.7,19.7,29.91,NNE,23,0.3,1.6,54,0.00,,,0.00,WUHU216HW,2013-03-22 13:09:00,
2013-03-22 09:12:00,34.7,19.7,29.92,North,6,1.0,1.6,54,0.00,,,0.00,WUHU216HW,2013-03-22 13:12:00,
2013-03-22 09:13:00,34.7,19.7,29.91,North,0,0.6,1.6,54,0.00,,,0.00,WUHU216HW,2013-03-22 13:13:00,
2013-03-22 09:15:00,34.9,19.9,29.92,North,0,0.4,1.6,54,0.00,,,0.00,WUHU216HW,2013-03-22 13:15:00,
2013-03-22 09:17:00,34.9,19.9,29.92,NW,315,0.5,1.6,54,0.00,,,0.00,WUHU216HW,2013-03-22 13:17:00,
2013-03-22 09:19:00,35.1,20.1,29.91,NNE,23,2.5,2.7,54,0.00,,,0.00,WUHU216HW,2013-03-22 13:19:00,
2013-03-22 09:20:00,35.1,20.1,29.91,NNE,17,1.9,2.7,54,0.00,,,0.00,WUHU216HW,2013-03-22 13:20:00,
2013-03-22 09:22:00,35.3,20.3,29.92,NNW,338,0.9,2.7,54,0.00,,,0.00,WUHU216HW,2013-03-22 13:22:00,
2013-03-22 09:24:00,35.3,20.3,29.92,NNW,345,0.7,2.7,54,0.00,,,0.00,WUHU216HW,2013-03-22 13:24:00,
2013-03-22 09:26:00,35.3,20.3,29.92,NNW,343,0.4,2.7,54,0.00,,,0.00,WUHU216HW,2013-03-22 13:26:00,
2013-03-22 09:27:00,35.3,20.3,29.92,NNE,22,2.0,2.9,54,0.00,,,0.00,WUHU216HW,2013-03-22 13:27:00,
2013-03-22 09:30:00,35.5,20.4,29.92,North,0,1.8,2.9,54,0.00,,,0.00,WUHU216HW,2013-03-22 13:30:00,
2013-03-22 09:31:00,35.5,20.4,29.92,NNE,23,1.3,2.9,54,0.00,,,0.00,WUHU216HW,2013-03-22 13:31:00,
2013-03-22 09:33:00,35.5,20.0,29.92,North,350,1.4,2.9,53,0.00,,,0.00,WUHU216HW,2013-03-22 13:33:00,
2013-03-22 09:36:00,35.5,20.0,29.92,NNE,21,1.5,2.9,53,0.00,,,0.00,WUHU216HW,2013-03-22 13:36:00,
2013-03-22 09:37:00,35.5,20.0,29.92,NNE,23,1.5,2.2,53,0.00,,,0.00,WUHU216HW,2013-03-22 13:37:00,
2013-03-22 09:38:00,35.3,19.8,29.92,NNE,23,1.3,2.2,53,0.00,,,0.00,WUHU216HW,2013-03-22 13:38:00,
2013-03-22 09:41:00,35.5,20.0,29.92,North,356,1.1,2.2,53,0.00,,,0.00,WUHU216HW,2013-03-22 13:41:00,
2013-03-22 09:42:00,35.5,20.0,29.92,NE,45,1.6,2.2,53,0.00,,,0.00,WUHU216HW,2013-03-22 13:42:00,
2013-03-22 09:43:00,35.5,20.0,29.92,NE,45,1.6,2.2,53,0.00,,,0.00,WUHU216HW,2013-03-22 13:43:00,
2013-03-22 09:47:00,35.5,20.0,29.92,NNE,13,1.3,1.8,53,0.00,,,0.00,WUHU216HW,2013-03-22 13:47:00,
2013-03-22 09:48:00,35.5,20.0,29.92,North,0,1.1,1.8,53,0.00,,,0.00,WUHU216HW,2013-03-22 13:48:00,
2013-03-22 09:49:00,35.5,20.0,29.92,North,3,1.0,1.8,53,0.00,,,0.00,WUHU216HW,2013-03-22 13:49:00,
2013-03-22 09:53:00,35.6,20.2,29.92,North,0,0.9,2.5,53,0.00,,,0.00,WUHU216HW,2013-03-22 13:53:00,
2013-03-22 09:54:00,35.8,20.3,29.92,NNE,15,1.3,2.5,53,0.00,,,0.00,WUHU216HW,2013-03-22 13:54:00,
2013-03-22 09:55:00,35.6,20.2,29.92,NNE,19,1.3,2.5,53,0.00,,,0.00,WUHU216HW,2013-03-22 13:55:00,
2013-03-22 09:58:00,35.6,19.8,29.92,NNE,23,2.5,2.5,52,0.00,,,0.00,WUHU216HW,2013-03-22 13:58:00,
2013-03-22 09:59:00,35.6,19.8,29.92,North,0,1.8,2.5,52,0.00,,,0.00,WUHU216HW,2013-03-22 13:59:00,
2013-03-22 10:00:00,35.6,19.8,29.92,NW,315,1.3,2.5,52,0.00,,,0.00,WUHU216HW,2013-03-22 14:00:00,
2013-03-22 10:03:00,35.6,19.8,29.92,NW,315,1.8,2.5,52,0.00,,,0.00,WUHU216HW,2013-03-22 14:03:00,
2013-03-22 10:05:00,35.6,19.8,29.92,NNW,329,1.4,2.5,52,0.00,,,0.00,WUHU216HW,2013-03-22 14:05:00,
2013-03-22 10:06:00,35.8,19.9,29.92,NNW,338,1.8,2.5,52,0.00,,,0.00,WUHU216HW,2013-03-22 14:06:00,
2013-03-22 10:09:00,35.8,20.3,29.92,NW,326,0.4,2.0,53,0.00,,,0.00,WUHU216HW,2013-03-22 14:09:00,
2013-03-22 10:11:00,36.0,20.5,29.92,NNE,23,1.6,2.0,53,0.00,,,0.00,WUHU216HW,2013-03-22 14:11:00,
2013-03-22 10:12:00,36.0,20.1,29.92,NNE,23,1.8,2.0,52,0.00,,,0.00,WUHU216HW,2013-03-22 14:12:00,
2013-03-22 10:15:00,36.0,20.1,29.92,NE,52,1.8,2.7,52,0.00,,,0.00,WUHU216HW,2013-03-22 14:15:00,
2013-03-22 10:17:00,35.8,19.9,29.92,NE,43,1.2,2.7,52,0.00,,,0.00,WUHU216HW,2013-03-22 14:17:00,
2013-03-22 10:18:00,35.8,19.9,29.92,ENE,68,1.6,2.7,52,0.00,,,0.00,WUHU216HW,2013-03-22 14:18:00,
2013-03-22 10:20:00,35.8,19.9,29.92,NNE,23,2.9,2.9,52,0.00,,,0.00,WUHU216HW,2013-03-22 14:20:00,
2013-03-22 10:22:00,35.8,19.9,29.92,NNE,23,2.0,2.9,52,0.00,,,0.00,WUHU216HW,2013-03-22 14:22:00,
2013-03-22 10:23:00,35.8,19.9,29.92,NE,42,1.6,2.9,52,0.00,,,0.00,WUHU216HW,2013-03-22 14:23:00,
2013-03-22 10:27:00,36.0,20.1,29.92,NE,38,1.3,3.6,52,0.00,,,0.00,WUHU216HW,2013-03-22 14:27:00,
2013-03-22 10:28:00,35.8,19.9,29.92,ENE,68,1.8,3.6,52,0.00,,,0.00,WUHU216HW,2013-03-22 14:28:00,
2013-03-22 10:29:00,35.8,19.9,29.92,NE,45,2.0,3.6,52,0.00,,,0.00,WUHU216HW,2013-03-22 14:29:00,
2013-03-22 10:30:00,36.0,19.6,29.92,ENE,68,2.7,3.6,51,0.00,,,0.00,WUHU216HW,2013-03-22 14:30:00,
2013-03-22 10:32:00,36.0,19.6,29.92,ENE,68,4.7,4.7,51,0.00,,,0.00,WUHU216HW,2013-03-22 14:32:00,
2013-03-22 10:33:00,36.0,19.6,29.92,NE,45,4.0,4.7,51,0.00,,,0.00,WUHU216HW,2013-03-22 14:33:00,
2013-03-22 10:34:00,36.2,19.8,29.92,NE,42,2.6,4.7,51,0.00,,,0.00,WUHU216HW,2013-03-22 14:34:00,
2013-03-22 10:35:00,36.2,19.8,29.92,NE,38,1.9,4.7,51,0.00,,,0.00,WUHU216HW,2013-03-22 14:35:00,
2013-03-22 10:38:00,36.2,19.8,29.92,NNE,20,1.3,4.7,51,0.00,,,0.00,WUHU216HW,2013-03-22 14:38:00,
2013-03-22 10:39:00,36.2,19.8,29.92,NNW,338,1.1,4.7,51,0.00,,,0.00,WUHU216HW,2013-03-22 14:39:00,
2013-03-22 10:40:00,36.4,20.0,29.92,NNE,23,2.0,4.7,51,0.00,,,0.00,WUHU216HW,2013-03-22 14:40:00,
2013-03-22 10:43:00,36.4,20.0,29.92,WNW,293,0.4,3.1,51,0.00,,,0.00,WUHU216HW,2013-03-22 14:43:00,
2013-03-22 10:44:00,36.4,20.0,29.92,NNW,338,1.8,3.1,51,0.00,,,0.00,WUHU216HW,2013-03-22 14:44:00,
2013-03-22 10:46:00,36.4,20.0,29.92,WNW,293,1.6,3.1,51,0.00,,,0.00,WUHU216HW,2013-03-22 14:46:00,
2013-03-22 10:47:00,36.5,20.2,29.92,NW,318,1.1,2.0,51,0.00,,,0.00,WUHU216HW,2013-03-22 14:47:00,
2013-03-22 10:48:00,36.7,20.4,29.92,NNW,338,0.7,2.0,51,0.00,,,0.00,WUHU216HW,2013-03-22 14:48:00,
2013-03-22 10:51:00,37.1,20.6,29.92,WNW,287,1.1,1.8,51,0.00,,,0.00,WUHU216HW,2013-03-22 14:51:00,
2013-03-22 10:52:00,37.1,20.6,29.92,NW,304,1.0,1.8,51,0.00,,,0.00,WUHU216HW,2013-03-22 14:52:00,
2013-03-22 10:54:00,37.3,20.8,29.92,North,358,1.0,1.8,51,0.00,,,0.00,WUHU216HW,2013-03-22 14:54:00,
2013-03-22 10:57:00,37.4,21.0,29.92,NNE,23,4.0,4.0,51,0.00,,,0.00,WUHU216HW,2013-03-22 14:57:00,
2013-03-22 10:58:00,37.6,21.2,29.91,NE,35,2.1,4.0,51,0.00,,,0.00,WUHU216HW,2013-03-22 14:58:00,
2013-03-22 10:59:00,37.6,20.2,29.91,East,90,3.1,4.3,49,0.00,,,0.00,WUHU216HW,2013-03-22 14:59:00,
2013-03-22 11:03:00,37.6,20.7,29.92,NNW,338,1.1,4.3,50,0.00,,,0.00,WUHU216HW,2013-03-22 15:03:00,
2013-03-22 11:05:00,37.8,20.9,29.92,NW,320,1.1,4.3,50,0.00,,,0.00,WUHU216HW,2013-03-22 15:05:00,
2013-03-22 11:08:00,38.2,21.6,29.92,WSW,250,0.8,4.3,51,0.00,,,0.00,WUHU216HW,2013-03-22 15:08:00,
2013-03-22 11:09:00,38.3,21.8,29.92,NNE,23,2.5,4.3,51,0.00,,,0.00,WUHU216HW,2013-03-22 15:09:00,
2013-03-22 11:10:00,38.5,21.5,29.92,NNE,23,2.5,3.1,50,0.00,,,0.00,WUHU216HW,2013-03-22 15:10:00,
2013-03-22 11:12:00,38.7,21.7,29.92,NW,321,0.7,2.5,50,0.00,,,0.00,WUHU216HW,2013-03-22 15:12:00,
2013-03-22 11:13:00,38.7,21.7,29.92,WSW,248,0.6,2.5,50,0.00,,,0.00,WUHU216HW,2013-03-22 15:13:00,
2013-03-22 11:15:00,39.1,22.0,29.92,ESE,113,0.7,2.5,50,0.00,,,0.00,WUHU216HW,2013-03-22 15:15:00,
2013-03-22 11:17:00,39.4,22.3,29.91,North,359,1.0,2.5,50,0.00,,,0.00,WUHU216HW,2013-03-22 15:17:00,
2013-03-22 11:18:00,39.6,22.5,29.91,NNW,332,1.4,2.5,50,0.00,,,0.00,WUHU216HW,2013-03-22 15:18:00,
2013-03-22 11:20:00,39.6,22.5,29.92,NNW,338,1.8,1.8,50,0.00,,,0.00,WUHU216HW,2013-03-22 15:20:00,
2013-03-22 11:22:00,39.8,22.6,29.92,North,0,0.9,1.8,50,0.00,,,0.00,WUHU216HW,2013-03-22 15:22:00,
2013-03-22 11:23:00,39.8,22.2,29.92,North,353,0.8,1.8,49,0.00,,,0.00,WUHU216HW,2013-03-22 15:23:00,
2013-03-22 11:24:00,40.0,22.8,29.92,NW,305,1.2,1.8,50,0.00,,,0.00,WUHU216HW,2013-03-22 15:24:00,
2013-03-22 11:25:00,40.0,22.2,29.92,NW,317,1.0,1.8,49,0.00,,,0.00,WUHU216HW,2013-03-22 15:25:00,
2013-03-22 11:28:00,40.3,22.6,29.92,SW,225,0.8,1.8,49,0.00,,,0.00,WUHU216HW,2013-03-22 15:28:00,
2013-03-22 11:29:00,40.5,22.8,29.92,SSW,207,0.4,1.8,49,0.00,,,0.00,WUHU216HW,2013-03-22 15:29:00,
2013-03-22 11:30:00,40.5,22.8,29.91,NNE,23,0.9,1.8,49,0.00,,,0.00,WUHU216HW,2013-03-22 15:30:00,
2013-03-22 11:33:00,40.7,23.0,29.92,ENE,66,1.7,2.5,49,0.00,,,0.00,WUHU216HW,2013-03-22 15:33:00,
2013-03-22 11:34:00,40.7,23.0,29.92,East,101,1.0,2.5,49,0.00,,,0.00,WUHU216HW,2013-03-22 15:34:00,
2013-03-22 11:35:00,40.9,23.0,29.92,SE,134,0.9,2.5,49,0.00,,,0.00,WUHU216HW,2013-03-22 15:35:00,
2013-03-22 11:37:00,41.4,23.6,29.92,East,82,1.2,2.5,49,0.00,,,0.00,WUHU216HW,2013-03-22 15:37:00,
2013-03-22 11:39:00,41.8,23.9,29.92,East,86,1.0,2.5,49,0.00,,,0.00,WUHU216HW,2013-03-22 15:39:00,
2013-03-22 11:40:00,41.9,24.1,29.92,SE,135,0.2,2.5,49,0.00,,,0.00,WUHU216HW,2013-03-22 15:40:00,
2013-03-22 11:43:00,42.1,24.3,29.92,NW,315,1.1,1.3,49,0.00,,,0.00,WUHU216HW,2013-03-22 15:43:00,
2013-03-22 11:44:00,42.3,24.5,29.92,West,270,1.1,1.6,49,0.00,,,0.00,WUHU216HW,2013-03-22 15:44:00,
2013-03-22 11:45:00,42.3,24.5,29.92,WNW,293,1.8,1.8,49,0.00,,,0.00,WUHU216HW,2013-03-22 15:45:00,
2013-03-22 11:49:00,42.7,23.8,29.92,NW,316,1.6,2.0,47,0.00,,,0.00,WUHU216HW,2013-03-22 15:49:00,
2013-03-22 11:50:00,42.7,24.3,29.92,WNW,283,1.3,2.0,48,0.00,,,0.00,WUHU216HW,2013-03-22 15:50:00,
2013-03-22 11:51:00,42.7,24.3,29.92,West,260,1.0,2.0,48,0.00,,,0.00,WUHU216HW,2013-03-22 15:51:00,
2013-03-22 11:55:00,42.7,23.8,29.92,ENE,68,2.5,2.5,47,0.00,,,0.00,WUHU216HW,2013-03-22 15:55:00,
2013-03-22 11:57:00,42.5,23.0,29.92,NNE,23,1.3,2.5,46,0.00,,,0.00,WUHU216HW,2013-03-22 15:57:00,
2013-03-22 11:58:00,42.5,23.6,29.92,NNW,338,1.1,2.5,47,0.00,,,0.00,WUHU216HW,2013-03-22 15:58:00,
2013-03-22 12:01:00,42.5,23.6,29.92,NNE,26,1.4,2.5,47,0.00,,,0.00,WUHU216HW,2013-03-22 16:01:00,
2013-03-22 12:02:00,42.3,23.4,29.92,NNE,23,2.5,2.5,47,0.00,,,0.00,WUHU216HW,2013-03-22 16:02:00,
2013-03-22 12:03:00,42.5,23.6,29.92,NNE,25,1.4,2.5,47,0.00,,,0.00,WUHU216HW,2013-03-22 16:03:00,
2013-03-22 12:07:00,42.1,23.2,29.92,NE,45,0.4,2.5,47,0.00,,,0.00,WUHU216HW,2013-03-22 16:07:00,
2013-03-22 12:08:00,42.3,23.4,29.92,ESE,113,0.4,2.5,47,0.00,,,0.00,WUHU216HW,2013-03-22 16:08:00,
2013-03-22 12:09:00,42.5,23.6,29.92,West,270,1.3,2.5,47,0.00,,,0.00,WUHU216HW,2013-03-22 16:09:00,
2013-03-22 12:12:00,42.8,24.5,29.92,SSW,203,4.0,4.0,48,0.00,,,0.00,WUHU216HW,2013-03-22 16:12:00,
2013-03-22 12:13:00,43.2,24.9,29.92,ESE,113,2.5,4.0,48,0.00,,,0.00,WUHU216HW,2013-03-22 16:13:00,
2013-03-22 12:16:00,43.9,25.5,29.92,SSE,160,1.5,4.0,48,0.00,,,0.00,WUHU216HW,2013-03-22 16:16:00,
2013-03-22 12:18:00,44.5,25.9,29.92,South,180,0.6,4.0,48,0.00,,,0.00,WUHU216HW,2013-03-22 16:18:00,
2013-03-22 12:19:00,44.6,25.6,29.93,SE,135,2.9,4.0,47,0.00,,,0.00,WUHU216HW,2013-03-22 16:19:00,
2013-03-22 12:22:00,45.0,25.9,29.93,SE,135,3.1,3.4,47,0.00,,,0.00,WUHU216HW,2013-03-22 16:22:00,
2013-03-22 12:23:00,45.2,26.0,29.93,SE,135,4.0,4.0,47,0.00,,,0.00,WUHU216HW,2013-03-22 16:23:00,
2013-03-22 12:24:00,45.2,26.0,29.93,South,176,2.3,4.0,47,0.00,,,0.00,WUHU216HW,2013-03-22 16:24:00,
2013-03-22 12:25:00,45.4,26.2,29.92,SW,231,1.6,4.0,47,0.00,,,0.00,WUHU216HW,2013-03-22 16:25:00,
2013-03-22 12:27:00,45.4,26.2,29.92,SSW,203,2.2,4.0,47,0.00,,,0.00,WUHU216HW,2013-03-22 16:27:00,
2013-03-22 12:29:00,45.4,25.7,29.93,South,174,1.4,4.0,46,0.00,,,0.00,WUHU216HW,2013-03-22 16:29:00,
2013-03-22 12:30:00,45.4,25.7,29.93,SSE,158,1.8,4.0,46,0.00,,,0.00,WUHU216HW,2013-03-22 16:30:00,
2013-03-22 12:31:00,45.4,25.7,29.93,SSE,158,2.2,4.0,46,0.00,,,0.00,WUHU216HW,2013-03-22 16:31:00,
2013-03-22 12:32:00,45.2,25.5,29.93,SE,135,1.8,4.0,46,0.00,,,0.00,WUHU216HW,2013-03-22 16:32:00,
2013-03-22 12:34:00,45.4,25.7,29.93,ESE,122,1.6,4.0,46,0.00,,,0.00,WUHU216HW,2013-03-22 16:34:00,
2013-03-22 12:35:00,45.2,25.5,29.93,ESE,122,1.4,4.0,46,0.00,,,0.00,WUHU216HW,2013-03-22 16:35:00,
2013-03-22 12:36:00,45.2,25.5,29.93,West,270,0.7,4.0,46,0.00,,,0.00,WUHU216HW,2013-03-22 16:36:00,
2013-03-22 12:38:00,45.2,25.5,29.93,West,270,1.3,4.0,46,0.00,,,0.00,WUHU216HW,2013-03-22 16:38:00,
2013-03-22 12:39:00,45.0,24.9,29.92,SSW,198,0.6,4.0,45,0.00,,,0.00,WUHU216HW,2013-03-22 16:39:00,
2013-03-22 12:40:00,45.0,24.9,29.92,South,186,0.5,4.0,45,0.00,,,0.00,WUHU216HW,2013-03-22 16:40:00,
2013-03-22 12:42:00,44.8,24.7,29.93,SSW,203,0.0,2.5,45,0.00,,,0.00,WUHU216HW,2013-03-22 16:42:00,
2013-03-22 12:43:00,44.6,24.5,29.93,SSW,203,0.6,2.5,45,0.00,,,0.00,WUHU216HW,2013-03-22 16:43:00,
2013-03-22 12:45:00,44.6,24.5,29.93,North,0,1.6,2.5,45,0.00,,,0.00,WUHU216HW,2013-03-22 16:45:00,
2013-03-22 12:47:00,44.6,23.9,29.92,NE,40,1.5,2.5,44,0.00,,,0.00,WUHU216HW,2013-03-22 16:47:00,
2013-03-22 12:49:00,44.5,24.3,29.92,WNW,293,0.9,2.2,45,0.00,,,0.00,WUHU216HW,2013-03-22 16:49:00,
2013-03-22 12:50:00,44.6,24.5,29.92,West,270,1.1,2.2,45,0.00,,,0.00,WUHU216HW,2013-03-22 16:50:00,
2013-03-22 12:54:00,45.0,24.3,29.92,West,268,1.4,2.7,44,0.00,,,0.00,WUHU216HW,2013-03-22 16:54:00,
2013-03-22 12:55:00,45.2,24.9,29.92,NW,315,1.1,2.7,45,0.00,,,0.00,WUHU216HW,2013-03-22 16:55:00,
2013-03-22 12:56:00,45.2,24.9,29.92,WNW,292,0.8,2.7,45,0.00,,,0.00,WUHU216HW,2013-03-22 16:56:00,
2013-03-22 12:59:00,45.7,25.5,29.92,NNW,338,0.9,2.7,45,0.00,,,0.00,WUHU216HW,2013-03-22 16:59:00,
2013-03-22 13:00:00,45.9,25.1,29.92,North,0,0.9,2.7,44,0.00,,,0.00,WUHU216HW,2013-03-22 17:00:00,
2013-03-22 13:01:00,46.1,25.2,29.92,NNW,338,1.1,2.7,44,0.00,,,0.00,WUHU216HW,2013-03-22 17:01:00,
2013-03-22 13:03:00,46.4,26.1,29.92,West,265,1.0,1.8,45,0.00,,,0.00,WUHU216HW,2013-03-22 17:03:00,
2013-03-22 13:05:00,46.6,25.8,29.92,NW,315,1.1,1.8,44,0.00,,,0.00,WUHU216HW,2013-03-22 17:05:00,
2013-03-22 13:06:00,46.8,25.9,29.92,West,270,1.1,1.8,44,0.00,,,0.00,WUHU216HW,2013-03-22 17:06:00,
2013-03-22 13:08:00,47.2,26.2,29.92,West,270,2.7,2.7,44,0.00,,,0.00,WUHU216HW,2013-03-22 17:08:00,
2013-03-22 13:11:00,47.2,26.2,29.92,NNW,338,2.7,4.0,44,0.00,,,0.00,WUHU216HW,2013-03-22 17:11:00,
2013-03-22 13:12:00,47.2,25.7,29.92,NNE,15,2.9,4.0,43,0.00,,,0.00,WUHU216HW,2013-03-22 17:12:00,
2013-03-22 13:14:00,46.8,24.9,29.92,North,0,2.5,4.0,42,0.00,,,0.00,WUHU216HW,2013-03-22 17:14:00,
2013-03-22 13:17:00,46.4,25.0,29.92,SSW,203,2.9,4.0,43,0.00,,,0.00,WUHU216HW,2013-03-22 17:17:00,
2013-03-22 13:19:00,46.6,25.8,29.91,SSW,196,0.9,4.0,44,0.00,,,0.00,WUHU216HW,2013-03-22 17:19:00,
2013-03-22 13:20:00,46.8,25.9,29.91,SSW,203,0.6,4.0,44,0.00,,,0.00,WUHU216HW,2013-03-22 17:20:00,
2013-03-22 13:22:00,47.2,26.2,29.91,SSW,212,0.8,3.4,44,0.00,,,0.00,WUHU216HW,2013-03-22 17:22:00,
2013-03-22 13:23:00,47.2,26.2,29.91,SE,135,1.8,3.4,44,0.00,,,0.00,WUHU216HW,2013-03-22 17:23:00,
2013-03-22 13:25:00,47.7,26.7,29.91,SE,141,2.1,3.4,44,0.00,,,0.00,WUHU216HW,2013-03-22 17:25:00,
2013-03-22 13:26:00,47.9,26.8,29.91,SSE,158,1.8,3.4,44,0.00,,,0.00,WUHU216HW,2013-03-22 17:26:00,
2013-03-22 13:28:00,48.4,27.4,29.91,WSW,248,1.1,3.1,44,0.00,,,0.00,WUHU216HW,2013-03-22 17:28:00,
2013-03-22 13:29:00,48.6,27.6,29.91,West,270,2.2,3.1,44,0.00,,,0.00,WUHU216HW,2013-03-22 17:29:00,
2013-03-22 13:30:00,48.8,27.7,29.91,West,270,2.9,3.1,44,0.00,,,0.00,WUHU216HW,2013-03-22 17:30:00,
2013-03-22 13:31:00,48.8,27.7,29.91,WSW,239,2.3,3.1,44,0.00,,,0.00,WUHU216HW,2013-03-22 17:31:00,
2013-03-22 13:35:00,49.0,27.3,29.91,SSE,149,1.0,3.4,43,0.00,,,0.00,WUHU216HW,2013-03-22 17:35:00,
2013-03-22 13:36:00,49.1,27.5,29.91,SSE,158,0.4,3.4,43,0.00,,,0.00,WUHU216HW,2013-03-22 17:36:00,
2013-03-22 13:37:00,49.1,27.5,29.91,SSE,158,0.7,3.4,43,0.00,,,0.00,WUHU216HW,2013-03-22 17:37:00,
2013-03-22 13:38:00,49.3,27.6,29.91,SW,225,1.8,3.4,43,0.00,,,0.00,WUHU216HW,2013-03-22 17:38:00,
2013-03-22 13:40:00,49.3,27.6,29.91,ESE,113,1.6,3.4,43,0.00,,,0.00,WUHU216HW,2013-03-22 17:40:00,
2013-03-22 13:41:00,49.3,27.1,29.91,ESE,103,0.9,3.4,42,0.00,,,0.00,WUHU216HW,2013-03-22 17:41:00,
2013-03-22 13:43:00,49.1,26.9,29.91,North,0,1.3,2.0,42,0.00,,,0.00,WUHU216HW,2013-03-22 17:43:00,
2013-03-22 13:46:00,49.1,26.9,29.91,West,270,2.5,2.5,42,0.00,,,0.00,WUHU216HW,2013-03-22 17:46:00,
2013-03-22 13:47:00,49.3,27.6,29.91,SSE,158,2.0,2.5,43,0.00,,,0.00,WUHU216HW,2013-03-22 17:47:00,
2013-03-22 13:48:00,49.3,27.6,29.91,South,186,1.3,2.5,43,0.00,,,0.00,WUHU216HW,2013-03-22 17:48:00,
2013-03-22 13:52:00,49.7,26.9,29.91,North,0,1.6,3.6,41,0.00,,,0.00,WUHU216HW,2013-03-22 17:52:00,
2013-03-22 13:53:00,49.7,26.9,29.91,North,0,1.6,3.6,41,0.00,,,0.00,WUHU216HW,2013-03-22 17:53:00,
2013-03-22 13:54:00,49.5,26.7,29.91,NNE,19,1.5,3.6,41,0.00,,,0.00,WUHU216HW,2013-03-22 17:54:00,
2013-03-22 13:58:00,49.7,27.5,29.90,WNW,293,3.1,3.6,42,0.00,,,0.00,WUHU216HW,2013-03-22 17:58:00,
2013-03-22 13:59:00,49.7,27.5,29.90,WNW,291,1.7,3.6,42,0.00,,,0.00,WUHU216HW,2013-03-22 17:59:00,
2013-03-22 14:03:00,50.0,28.4,29.91,SE,144,3.7,4.5,43,0.00,,,0.00,WUHU216HW,2013-03-22 18:03:00,
2013-03-22 14:04:00,50.0,28.4,29.91,SE,143,3.4,4.5,43,0.00,,,0.00,WUHU216HW,2013-03-22 18:04:00,
2013-03-22 14:06:00,50.2,28.4,29.91,South,185,2.9,4.7,43,0.00,,,0.00,WUHU216HW,2013-03-22 18:06:00,
2013-03-22 14:08:00,50.4,28.6,29.91,SW,225,3.4,4.7,43,0.00,,,0.00,WUHU216HW,2013-03-22 18:08:00,
2013-03-22 14:09:00,50.4,28.6,29.91,WSW,242,3.0,4.7,43,0.00,,,0.00,WUHU216HW,2013-03-22 18:09:00,
2013-03-22 14:10:00,50.6,28.3,29.91,WSW,250,2.5,4.7,42,0.00,,,0.00,WUHU216HW,2013-03-22 18:10:00,
2013-03-22 14:13:00,50.4,27.6,29.91,West,276,3.8,5.6,41,0.00,,,0.00,WUHU216HW,2013-03-22 18:13:00,
2013-03-22 14:14:00,50.2,27.4,29.91,WSW,253,2.3,5.6,41,0.00,,,0.00,WUHU216HW,2013-03-22 18:14:00,
2013-03-22 14:15:00,50.2,27.4,29.90,SSW,203,2.5,5.6,41,0.00,,,0.00,WUHU216HW,2013-03-22 18:15:00,
2013-03-22 14:18:00,50.2,27.9,29.91,SE,135,2.2,5.6,42,0.00,,,0.00,WUHU216HW,2013-03-22 18:18:00,
2013-03-22 14:19:00,50.2,27.9,29.91,South,179,2.0,5.6,42,0.00,,,0.00,WUHU216HW,2013-03-22 18:19:00,
2013-03-22 14:20:00,50.2,27.9,29.91,SE,146,1.3,5.6,42,0.00,,,0.00,WUHU216HW,2013-03-22 18:20:00,
2013-03-22 14:21:00,50.2,27.9,29.91,SSE,149,1.0,5.6,42,0.00,,,0.00,WUHU216HW,2013-03-22 18:21:00,
2013-03-22 14:23:00,50.0,27.7,29.91,ENE,58,1.3,4.0,42,0.00,,,0.00,WUHU216HW,2013-03-22 18:23:00,
2013-03-22 14:25:00,49.9,27.0,29.90,WNW,293,4.5,4.5,41,0.00,,,0.00,WUHU216HW,2013-03-22 18:25:00,
2013-03-22 14:26:00,49.7,26.9,29.90,WNW,283,3.0,4.5,41,0.00,,,0.00,WUHU216HW,2013-03-22 18:26:00,
2013-03-22 14:28:00,49.7,26.9,29.90,NW,322,1.1,4.5,41,0.00,,,0.00,WUHU216HW,2013-03-22 18:28:00,
2013-03-22 14:30:00,49.5,26.2,29.90,NNW,341,1.6,4.5,40,0.00,,,0.00,WUHU216HW,2013-03-22 18:30:00,
2013-03-22 14:32:00,49.3,26.6,29.90,SW,231,1.4,4.5,41,0.00,,,0.00,WUHU216HW,2013-03-22 18:32:00,
2013-03-22 14:33:00,49.3,26.6,29.90,South,183,1.2,4.5,41,0.00,,,0.00,WUHU216HW,2013-03-22 18:33:00,
2013-03-22 14:36:00,49.1,26.4,29.90,West,270,3.8,4.7,41,0.00,,,0.00,WUHU216HW,2013-03-22 18:36:00,
2013-03-22 14:37:00,49.0,25.7,29.89,West,274,2.7,4.7,40,0.00,,,0.00,WUHU216HW,2013-03-22 18:37:00,
2013-03-22 14:38:00,49.0,26.2,29.90,WSW,248,1.8,4.7,41,0.00,,,0.00,WUHU216HW,2013-03-22 18:38:00,
2013-03-22 14:41:00,48.6,26.5,29.90,WSW,247,1.4,4.7,42,0.00,,,0.00,WUHU216HW,2013-03-22 18:41:00,
2013-03-22 14:43:00,48.6,26.5,29.90,ENE,61,0.6,4.7,42,0.00,,,0.00,WUHU216HW,2013-03-22 18:43:00,
2013-03-22 14:44:00,48.6,26.5,29.90,ENE,58,0.6,4.7,42,0.00,,,0.00,WUHU216HW,2013-03-22 18:44:00,
2013-03-22 14:46:00,48.8,26.7,29.90,NW,315,1.1,2.5,42,0.00,,,0.00,WUHU216HW,2013-03-22 18:46:00,
2013-03-22 14:49:00,48.8,26.7,29.89,WNW,293,0.6,2.0,42,0.00,,,0.00,WUHU216HW,2013-03-22 18:49:00,
2013-03-22 14:50:00,48.8,26.7,29.89,WNW,284,0.7,2.0,42,0.00,,,0.00,WUHU216HW,2013-03-22 18:50:00,
2013-03-22 14:53:00,48.6,25.9,29.89,WNW,288,1.3,2.5,41,0.00,,,0.00,WUHU216HW,2013-03-22 18:53:00,
2013-03-22 14:54:00,48.6,25.9,29.89,NNW,338,1.3,2.5,41,0.00,,,0.00,WUHU216HW,2013-03-22 18:54:00,
2013-03-22 14:55:00,48.6,25.9,29.89,SW,225,1.8,2.5,41,0.00,,,0.00,WUHU216HW,2013-03-22 18:55:00,
2013-03-22 14:56:00,48.6,25.9,29.89,WSW,248,3.4,3.4,41,0.00,,,0.00,WUHU216HW,2013-03-22 18:56:00,
2013-03-22 14:59:00,48.6,25.9,29.89,NNE,23,0.9,3.4,41,0.00,,,0.00,WUHU216HW,2013-03-22 18:59:00,
2013-03-22 15:00:00,48.6,25.9,29.89,NNE,16,0.7,3.4,41,0.00,,,0.00,WUHU216HW,2013-03-22 19:00:00,
2013-03-22 15:01:00,48.6,25.9,29.89,ENE,68,0.9,3.4,41,0.00,,,0.00,WUHU216HW,2013-03-22 19:01:00,
2013-03-22 15:02:00,48.6,25.9,29.88,SE,137,0.8,3.4,41,0.00,,,0.00,WUHU216HW,2013-03-22 19:02:00,
2013-03-22 15:05:00,48.6,26.5,29.88,SW,225,1.0,3.4,42,0.00,,,0.00,WUHU216HW,2013-03-22 19:05:00,
2013-03-22 15:06:00,48.6,26.5,29.88,WSW,241,0.4,2.9,42,0.00,,,0.00,WUHU216HW,2013-03-22 19:06:00,
2013-03-22 15:07:00,48.6,27.0,29.88,SW,224,0.6,2.9,43,0.00,,,0.00,WUHU216HW,2013-03-22 19:07:00,
2013-03-22 15:10:00,48.8,27.2,29.88,WSW,245,1.3,2.9,43,0.00,,,0.00,WUHU216HW,2013-03-22 19:10:00,
2013-03-22 15:12:00,49.0,27.3,29.88,SW,225,3.4,3.4,43,0.00,,,0.00,WUHU216HW,2013-03-22 19:12:00,
2013-03-22 15:16:00,49.1,26.9,29.88,SE,135,2.7,3.6,42,0.00,,,0.00,WUHU216HW,2013-03-22 19:16:00,
2013-03-22 15:17:00,49.1,26.9,29.88,East,90,4.3,4.3,42,0.00,,,0.00,WUHU216HW,2013-03-22 19:17:00,
2013-03-22 15:18:00,49.1,26.4,29.88,ESE,113,5.1,5.1,41,0.00,,,0.00,WUHU216HW,2013-03-22 19:18:00,
2013-03-22 15:21:00,48.8,26.0,29.87,NNE,23,1.1,5.1,41,0.00,,,0.00,WUHU216HW,2013-03-22 19:21:00,
2013-03-22 15:22:00,48.8,26.0,29.87,NNE,23,0.9,5.1,41,0.00,,,0.00,WUHU216HW,2013-03-22 19:22:00,
2013-03-22 15:23:00,49.0,26.2,29.87,NNE,21,1.2,5.1,41,0.00,,,0.00,WUHU216HW,2013-03-22 19:23:00,
2013-03-22 15:24:00,49.0,26.2,29.87,NNE,23,1.3,5.1,41,0.00,,,0.00,WUHU216HW,2013-03-22 19:24:00,
2013-03-22 15:27:00,49.3,26.6,29.87,SSE,158,1.3,5.1,41,0.00,,,0.00,WUHU216HW,2013-03-22 19:27:00,
2013-03-22 15:28:00,49.5,27.3,29.87,SSE,158,0.8,4.3,42,0.00,,,0.00,WUHU216HW,2013-03-22 19:28:00,
2013-03-22 15:29:00,49.7,27.5,29.87,SSE,158,0.7,1.8,42,0.00,,,0.00,WUHU216HW,2013-03-22 19:29:00,
2013-03-22 15:33:00,49.7,26.9,29.87,North,357,1.2,1.8,41,0.00,,,0.00,WUHU216HW,2013-03-22 19:33:00,
2013-03-22 15:34:00,49.9,26.5,29.87,NNE,15,1.2,1.8,40,0.00,,,0.00,WUHU216HW,2013-03-22 19:34:00,
2013-03-22 15:38:00,49.7,26.3,29.87,NNE,25,1.2,1.8,40,0.00,,,0.00,WUHU216HW,2013-03-22 19:38:00,
2013-03-22 15:39:00,49.7,26.3,29.87,NNE,32,1.0,1.8,40,0.00,,,0.00,WUHU216HW,2013-03-22 19:39:00,
2013-03-22 15:40:00,49.7,26.3,29.86,NE,41,0.7,1.8,40,0.00,,,0.00,WUHU216HW,2013-03-22 19:40:00,
2013-03-22 15:43:00,50.2,27.9,29.86,SSE,149,1.0,2.2,42,0.00,,,0.00,WUHU216HW,2013-03-22 19:43:00,
2013-03-22 15:44:00,50.4,28.1,29.86,ESE,119,0.8,2.2,42,0.00,,,0.00,WUHU216HW,2013-03-22 19:44:00,
2013-03-22 15:45:00,50.6,28.3,29.86,East,90,3.1,3.1,42,0.00,,,0.00,WUHU216HW,2013-03-22 19:45:00,
2013-03-22 15:48:00,50.6,27.7,29.86,NNE,23,0.7,4.0,41,0.00,,,0.00,WUHU216HW,2013-03-22 19:48:00,
2013-03-22 15:49:00,50.6,27.7,29.86,NE,50,0.5,4.0,41,0.00,,,0.00,WUHU216HW,2013-03-22 19:49:00,
2013-03-22 15:51:00,50.6,27.1,29.86,North,0,3.4,4.0,40,0.00,,,0.00,WUHU216HW,2013-03-22 19:51:00,
2013-03-22 15:53:00,50.4,27.0,29.85,SE,127,3.0,4.5,40,0.00,,,0.00,WUHU216HW,2013-03-22 19:53:00,
2013-03-22 15:54:00,50.2,27.4,29.85,SE,135,4.7,4.7,41,0.00,,,0.00,WUHU216HW,2013-03-22 19:54:00,
2013-03-22 15:56:00,50.2,27.4,29.85,ESE,113,2.9,4.7,41,0.00,,,0.00,WUHU216HW,2013-03-22 19:56:00,
2013-03-22 15:57:00,50.2,27.4,29.86,SE,125,2.0,4.7,41,0.00,,,0.00,WUHU216HW,2013-03-22 19:57:00,
2013-03-22 15:59:00,50.4,27.0,29.86,North,0,3.4,4.7,40,0.00,,,0.00,WUHU216HW,2013-03-22 19:59:00,
2013-03-22 16:02:00,49.9,25.1,29.85,East,89,3.3,4.7,38,0.00,,,0.00,WUHU216HW,2013-03-22 20:02:00,
2013-03-22 16:04:00,49.3,24.7,29.86,ENE,69,2.5,4.7,38,0.00,,,0.00,WUHU216HW,2013-03-22 20:04:00,
2013-03-22 16:05:00,49.1,24.5,29.86,ENE,77,2.1,4.3,38,0.00,,,0.00,WUHU216HW,2013-03-22 20:05:00,
2013-03-22 16:07:00,48.8,24.9,29.85,ENE,68,1.0,4.3,39,0.00,,,0.00,WUHU216HW,2013-03-22 20:07:00,
2013-03-22 16:08:00,49.0,25.0,29.85,ENE,68,0.7,4.3,39,0.00,,,0.00,WUHU216HW,2013-03-22 20:08:00,
2013-03-22 16:09:00,48.8,24.9,29.86,East,93,2.0,4.3,39,0.00,,,0.00,WUHU216HW,2013-03-22 20:09:00,
2013-03-22 16:10:00,48.8,24.9,29.86,East,96,1.8,4.3,39,0.00,,,0.00,WUHU216HW,2013-03-22 20:10:00,
2013-03-22 16:13:00,48.8,24.9,29.86,NE,45,2.7,3.6,39,0.00,,,0.00,WUHU216HW,2013-03-22 20:13:00,
2013-03-22 16:15:00,48.8,24.1,29.86,East,93,3.4,4.3,38,0.00,,,0.00,WUHU216HW,2013-03-22 20:15:00,
2013-03-22 16:19:00,48.1,23.5,29.85,NE,43,3.9,5.4,38,0.00,,,0.00,WUHU216HW,2013-03-22 20:19:00,
2013-03-22 16:20:00,48.1,23.5,29.85,NE,38,4.2,5.4,38,0.00,,,0.00,WUHU216HW,2013-03-22 20:20:00,
2013-03-22 16:24:00,47.9,23.4,29.85,ENE,68,3.6,5.4,38,0.00,,,0.00,WUHU216HW,2013-03-22 20:24:00,
2013-03-22 16:25:00,47.9,24.0,29.85,East,90,3.4,5.4,39,0.00,,,0.00,WUHU216HW,2013-03-22 20:25:00,
2013-03-22 16:26:00,47.9,24.0,29.85,East,90,3.4,5.4,39,0.00,,,0.00,WUHU216HW,2013-03-22 20:26:00,
2013-03-22 16:29:00,47.9,24.7,29.85,NE,49,2.9,4.0,40,0.00,,,0.00,WUHU216HW,2013-03-22 20:29:00,
2013-03-22 16:31:00,47.9,24.7,29.85,SE,135,3.8,5.4,40,0.00,,,0.00,WUHU216HW,2013-03-22 20:31:00,
2013-03-22 16:32:00,47.9,24.7,29.85,ESE,114,3.6,5.4,40,0.00,,,0.00,WUHU216HW,2013-03-22 20:32:00,
2013-03-22 16:35:00,48.1,25.4,29.86,ESE,113,2.2,5.4,41,0.00,,,0.00,WUHU216HW,2013-03-22 20:35:00,
2013-03-22 16:37:00,48.1,25.4,29.86,ESE,110,2.6,5.4,41,0.00,,,0.00,WUHU216HW,2013-03-22 20:37:00,
2013-03-22 16:38:00,48.1,25.4,29.86,East,90,4.0,5.4,41,0.00,,,0.00,WUHU216HW,2013-03-22 20:38:00,
2013-03-22 16:40:00,48.1,24.8,29.86,East,100,3.4,5.4,40,0.00,,,0.00,WUHU216HW,2013-03-22 20:40:00,
2013-03-22 16:42:00,47.9,25.2,29.86,ENE,68,4.3,4.3,41,0.00,,,0.00,WUHU216HW,2013-03-22 20:42:00,
2013-03-22 16:43:00,47.9,24.7,29.86,ENE,76,2.8,4.3,40,0.00,,,0.00,WUHU216HW,2013-03-22 20:43:00,
2013-03-22 16:44:00,47.9,24.7,29.85,East,80,2.8,4.3,40,0.00,,,0.00,WUHU216HW,2013-03-22 20:44:00,
2013-03-22 16:45:00,47.9,25.2,29.86,East,93,2.0,4.3,41,0.00,,,0.00,WUHU216HW,2013-03-22 20:45:00,
2013-03-22 16:47:00,47.7,25.1,29.86,East,93,2.4,4.3,41,0.00,,,0.00,WUHU216HW,2013-03-22 20:47:00,
2013-03-22 16:48:00,47.9,25.7,29.86,East,94,2.1,4.3,42,0.00,,,0.00,WUHU216HW,2013-03-22 20:48:00,
2013-03-22 16:50:00,47.7,25.7,29.86,ESE,104,2.2,4.3,42,0.00,,,0.00,WUHU216HW,2013-03-22 20:50:00,
2013-03-22 16:53:00,47.7,25.7,29.86,East,90,4.3,4.3,42,0.00,,,0.00,WUHU216HW,2013-03-22 20:53:00,
2013-03-22 16:54:00,47.7,25.7,29.86,ENE,68,4.0,4.3,42,0.00,,,0.00,WUHU216HW,2013-03-22 20:54:00,
2013-03-22 16:56:00,47.3,24.8,29.85,NE,53,2.5,4.3,41,0.00,,,0.00,WUHU216HW,2013-03-22 20:56:00,
2013-03-22 16:58:00,47.3,25.3,29.86,East,90,2.5,4.3,42,0.00,,,0.00,WUHU216HW,2013-03-22 20:58:00,
2013-03-22 16:59:00,47.3,25.3,29.86,East,90,2.5,4.3,42,0.00,,,0.00,WUHU216HW,2013-03-22 20:59:00,
2013-03-22 17:01:00,47.2,25.1,29.86,NNE,25,2.9,4.3,42,0.00,,,0.00,WUHU216HW,2013-03-22 21:01:00,
2013-03-22 17:04:00,47.0,24.9,29.86,East,95,2.5,3.8,42,0.00,,,0.00,WUHU216HW,2013-03-22 21:04:00,
2013-03-22 17:05:00,47.0,24.9,29.86,NNE,23,3.1,3.8,42,0.00,,,0.00,WUHU216HW,2013-03-22 21:05:00,
2013-03-22 17:07:00,46.8,24.9,29.86,ENE,68,2.7,3.6,42,0.00,,,0.00,WUHU216HW,2013-03-22 21:07:00,
2013-03-22 17:09:00,46.8,24.9,29.86,ESE,113,2.7,3.6,42,0.00,,,0.00,WUHU216HW,2013-03-22 21:09:00,
2013-03-22 17:10:00,46.8,24.9,29.85,ESE,104,2.3,3.4,42,0.00,,,0.00,WUHU216HW,2013-03-22 21:10:00,
2013-03-22 17:12:00,46.8,25.4,29.86,ESE,113,2.5,3.1,43,0.00,,,0.00,WUHU216HW,2013-03-22 21:12:00,
2013-03-22 17:14:00,47.0,25.5,29.86,East,99,2.2,3.1,43,0.00,,,0.00,WUHU216HW,2013-03-22 21:14:00,
2013-03-22 17:15:00,47.0,25.5,29.86,ESE,113,2.7,3.1,43,0.00,,,0.00,WUHU216HW,2013-03-22 21:15:00,
2013-03-22 17:16:00,47.0,25.5,29.85,East,90,2.9,3.1,43,0.00,,,0.00,WUHU216HW,2013-03-22 21:16:00,
2013-03-22 17:17:00,47.0,25.5,29.85,East,100,2.2,3.4,43,0.00,,,0.00,WUHU216HW,2013-03-22 21:17:00,
2013-03-22 17:20:00,47.2,25.7,29.86,ENE,68,2.2,3.4,43,0.00,,,0.00,WUHU216HW,2013-03-22 21:20:00,
2013-03-22 17:21:00,47.2,25.7,29.86,ENE,68,2.2,3.4,43,0.00,,,0.00,WUHU216HW,2013-03-22 21:21:00,
2013-03-22 17:22:00,47.2,25.7,29.86,ESE,113,3.1,3.8,43,0.00,,,0.00,WUHU216HW,2013-03-22 21:22:00,
2013-03-22 17:24:00,47.2,26.2,29.86,ESE,103,2.4,3.8,44,0.00,,,0.00,WUHU216HW,2013-03-22 21:24:00,
2013-03-22 17:25:00,47.2,26.2,29.86,ENE,68,2.2,3.8,44,0.00,,,0.00,WUHU216HW,2013-03-22 21:25:00,
2013-03-22 17:27:00,47.0,25.5,29.86,ENE,69,2.1,3.8,43,0.00,,,0.00,WUHU216HW,2013-03-22 21:27:00,
2013-03-22 17:29:00,47.0,25.5,29.86,ENE,59,2.3,3.8,43,0.00,,,0.00,WUHU216HW,2013-03-22 21:29:00,
2013-03-22 17:31:00,47.0,25.5,29.86,East,90,1.6,3.8,43,0.00,,,0.00,WUHU216HW,2013-03-22 21:31:00,
2013-03-22 17:33:00,46.8,25.4,29.86,NE,46,0.8,3.1,43,0.00,,,0.00,WUHU216HW,2013-03-22 21:33:00,
2013-03-22 17:34:00,46.8,25.9,29.86,NE,53,0.5,3.1,44,0.00,,,0.00,WUHU216HW,2013-03-22 21:34:00,
2013-03-22 17:35:00,47.0,26.0,29.85,NE,45,0.7,3.1,44,0.00,,,0.00,WUHU216HW,2013-03-22 21:35:00,
2013-03-22 17:38:00,47.0,26.0,29.85,NE,34,1.6,3.1,44,0.00,,,0.00,WUHU216HW,2013-03-22 21:38:00,
2013-03-22 17:39:00,46.8,25.9,29.85,NNE,13,1.4,3.1,44,0.00,,,0.00,WUHU216HW,2013-03-22 21:39:00,
2013-03-22 17:40:00,47.0,26.0,29.85,NE,47,2.4,3.8,44,0.00,,,0.00,WUHU216HW,2013-03-22 21:40:00,
2013-03-22 17:44:00,46.8,25.9,29.85,NE,55,1.5,3.8,44,0.00,,,0.00,WUHU216HW,2013-03-22 21:44:00,
2013-03-22 17:45:00,46.8,25.9,29.85,ESE,113,1.6,3.8,44,0.00,,,0.00,WUHU216HW,2013-03-22 21:45:00,
2013-03-22 17:47:00,46.8,25.9,29.85,East,91,1.1,3.8,44,0.00,,,0.00,WUHU216HW,2013-03-22 21:47:00,
2013-03-22 17:49:00,46.8,25.9,29.85,ENE,68,1.8,3.8,44,0.00,,,0.00,WUHU216HW,2013-03-22 21:49:00,
2013-03-22 17:50:00,46.8,25.9,29.85,East,87,1.7,3.4,44,0.00,,,0.00,WUHU216HW,2013-03-22 21:50:00,
2013-03-22 17:52:00,47.0,26.6,29.85,NE,42,1.7,2.5,45,0.00,,,0.00,WUHU216HW,2013-03-22 21:52:00,
2013-03-22 17:55:00,47.0,26.6,29.85,ENE,68,2.5,2.5,45,0.00,,,0.00,WUHU216HW,2013-03-22 21:55:00,
2013-03-22 17:57:00,47.0,26.6,29.85,ENE,68,2.5,3.1,45,0.00,,,0.00,WUHU216HW,2013-03-22 21:57:00,
2013-03-22 17:58:00,47.0,26.6,29.85,East,96,2.1,3.1,45,0.00,,,0.00,WUHU216HW,2013-03-22 21:58:00,
2013-03-22 18:01:00,47.0,26.0,29.85,East,90,2.9,3.1,44,0.00,,,0.00,WUHU216HW,2013-03-22 22:01:00,
2013-03-22 18:02:00,46.8,25.9,29.85,East,92,2.0,3.1,44,0.00,,,0.00,WUHU216HW,2013-03-22 22:02:00,
2013-03-22 18:03:00,47.0,26.0,29.85,East,94,1.0,3.1,44,0.00,,,0.00,WUHU216HW,2013-03-22 22:03:00,
2013-03-22 18:06:00,46.8,25.9,29.85,East,90,0.5,3.1,44,0.00,,,0.00,WUHU216HW,2013-03-22 22:06:00,
2013-03-22 18:07:00,47.0,26.6,29.86,East,90,0.4,2.9,45,0.00,,,0.00,WUHU216HW,2013-03-22 22:07:00,
2013-03-22 18:09:00,47.0,26.6,29.86,North,0,0.4,2.9,45,0.00,,,0.00,WUHU216HW,2013-03-22 22:09:00,
2013-03-22 18:13:00,47.0,26.6,29.86,East,90,1.1,1.1,45,0.00,,,0.00,WUHU216HW,2013-03-22 22:13:00,
2013-03-22 18:14:00,47.0,26.6,29.86,East,80,0.7,1.1,45,0.00,,,0.00,WUHU216HW,2013-03-22 22:14:00,
2013-03-22 18:18:00,47.0,26.6,29.85,NNE,23,0.4,1.1,45,0.00,,,0.00,WUHU216HW,2013-03-22 22:18:00,
2013-03-22 18:19:00,47.0,26.6,29.86,East,90,0.9,1.1,45,0.00,,,0.00,WUHU216HW,2013-03-22 22:19:00,
2013-03-22 18:20:00,47.0,26.6,29.86,ENE,73,0.6,1.1,45,0.00,,,0.00,WUHU216HW,2013-03-22 22:20:00,
2013-03-22 18:23:00,47.2,27.3,29.86,ESE,113,0.4,1.1,46,0.00,,,0.00,WUHU216HW,2013-03-22 22:23:00,
2013-03-22 18:24:00,47.2,27.3,29.86,ESE,113,0.4,1.1,46,0.00,,,0.00,WUHU216HW,2013-03-22 22:24:00,
2013-03-22 18:25:00,47.2,27.3,29.86,ESE,113,0.4,1.1,46,0.00,,,0.00,WUHU216HW,2013-03-22 22:25:00,
2013-03-22 18:26:00,47.2,27.3,29.86,ESE,113,1.1,1.1,46,0.00,,,0.00,WUHU216HW,2013-03-22 22:26:00,
2013-03-22 18:29:00,47.2,27.3,29.86,ESE,113,0.7,1.1,46,0.00,,,0.00,WUHU216HW,2013-03-22 22:29:00,
2013-03-22 18:30:00,47.2,27.3,29.86,ESE,113,0.7,1.1,46,0.00,,,0.00,WUHU216HW,2013-03-22 22:30:00,
2013-03-22 18:32:00,47.2,27.3,29.86,SE,135,1.1,1.6,46,0.00,,,0.00,WUHU216HW,2013-03-22 22:32:00,
2013-03-22 18:35:00,47.3,27.5,29.86,East,90,1.3,2.2,46,0.00,,,0.00,WUHU216HW,2013-03-22 22:35:00,
2013-03-22 18:37:00,47.2,27.3,29.85,East,90,0.9,2.2,46,0.00,,,0.00,WUHU216HW,2013-03-22 22:37:00,
2013-03-22 18:38:00,47.2,27.3,29.85,East,90,0.6,2.2,46,0.00,,,0.00,WUHU216HW,2013-03-22 22:38:00,
2013-03-22 18:41:00,47.2,27.3,29.86,East,90,0.0,2.2,46,0.00,,,0.00,WUHU216HW,2013-03-22 22:41:00,
2013-03-22 18:43:00,47.2,27.3,29.86,East,90,1.1,1.8,46,0.00,,,0.00,WUHU216HW,2013-03-22 22:43:00,
2013-03-22 18:44:00,47.2,27.3,29.86,East,90,0.9,1.3,46,0.00,,,0.00,WUHU216HW,2013-03-22 22:44:00,
2013-03-22 18:46:00,47.2,27.3,29.86,East,90,0.6,1.1,46,0.00,,,0.00,WUHU216HW,2013-03-22 22:46:00,
2013-03-22 18:48:00,47.2,27.3,29.86,East,90,0.9,1.1,46,0.00,,,0.00,WUHU216HW,2013-03-22 22:48:00,
2013-03-22 18:49:00,47.2,27.3,29.86,East,90,1.1,1.1,46,0.00,,,0.00,WUHU216HW,2013-03-22 22:49:00,
2013-03-22 18:51:00,47.0,27.1,29.86,East,90,1.2,1.3,46,0.00,,,0.00,WUHU216HW,2013-03-22 22:51:00,
2013-03-22 18:53:00,47.0,27.1,29.86,East,90,1.1,1.3,46,0.00,,,0.00,WUHU216HW,2013-03-22 22:53:00,
2013-03-22 18:54:00,47.2,27.3,29.86,East,90,1.3,1.3,46,0.00,,,0.00,WUHU216HW,2013-03-22 22:54:00,
2013-03-22 18:56:00,47.0,27.6,29.86,ESE,112,1.4,1.8,47,0.00,,,0.00,WUHU216HW,2013-03-22 22:56:00,
2013-03-22 18:59:00,47.0,27.6,29.86,ESE,113,1.1,1.8,47,0.00,,,0.00,WUHU216HW,2013-03-22 22:59:00,
2013-03-22 19:00:00,47.0,27.6,29.86,ESE,113,0.9,1.8,47,0.00,,,0.00,WUHU216HW,2013-03-22 23:00:00,
2013-03-22 19:02:00,47.0,27.6,29.86,East,85,1.1,1.8,47,0.00,,,0.00,WUHU216HW,2013-03-22 23:02:00,
2013-03-22 19:04:00,46.8,27.6,29.86,NE,45,0.7,1.8,47,0.00,,,0.00,WUHU216HW,2013-03-22 23:04:00,
2013-03-22 19:05:00,46.8,27.6,29.86,NE,45,0.5,1.8,47,0.00,,,0.00,WUHU216HW,2013-03-22 23:05:00,
2013-03-22 19:08:00,46.6,27.4,29.86,NE,45,0.0,1.8,47,0.00,,,0.00,WUHU216HW,2013-03-22 23:08:00,
2013-03-22 19:10:00,46.6,27.4,29.86,NE,45,0.0,1.8,47,0.00,,,0.00,WUHU216HW,2013-03-22 23:10:00,
2013-03-22 19:13:00,46.6,27.4,29.86,ESE,113,0.0,0.9,47,0.00,,,0.00,WUHU216HW,2013-03-22 23:13:00,
2013-03-22 19:15:00,46.4,27.7,29.86,ESE,113,0.0,0.4,48,0.00,,,0.00,WUHU216HW,2013-03-22 23:15:00,
2013-03-22 19:17:00,46.4,27.7,29.86,ESE,113,0.0,0.0,48,0.00,,,0.00,WUHU216HW,2013-03-22 23:17:00,
2013-03-22 19:19:00,46.6,27.9,29.86,ESE,113,0.0,0.0,48,0.00,,,0.00,WUHU216HW,2013-03-22 23:19:00,
2013-03-22 19:20:00,46.6,27.9,29.86,ESE,113,0.0,0.0,48,0.00,,,0.00,WUHU216HW,2013-03-22 23:20:00,
2013-03-22 19:23:00,46.6,27.9,29.86,ESE,113,0.4,0.4,48,0.00,,,0.00,WUHU216HW,2013-03-22 23:23:00,
2013-03-22 19:24:00,46.4,27.7,29.86,ESE,113,0.5,0.7,48,0.00,,,0.00,WUHU216HW,2013-03-22 23:24:00,
2013-03-22 19:25:00,46.4,28.3,29.86,ESE,113,0.4,0.7,49,0.00,,,0.00,WUHU216HW,2013-03-22 23:25:00,
2013-03-22 19:29:00,46.4,27.7,29.86,ESE,113,0.0,0.7,48,0.00,,,0.00,WUHU216HW,2013-03-22 23:29:00,
2013-03-22 19:32:00,46.4,28.3,29.86,ESE,113,0.0,0.7,49,0.00,,,0.00,WUHU216HW,2013-03-22 23:32:00,
2013-03-22 19:33:00,46.4,28.3,29.86,ESE,113,0.0,0.7,49,0.00,,,0.00,WUHU216HW,2013-03-22 23:33:00,
2013-03-22 19:36:00,46.4,28.3,29.86,ESE,113,0.0,0.0,49,0.00,,,0.00,WUHU216HW,2013-03-22 23:36:00,
2013-03-22 19:37:00,46.4,28.3,29.86,ESE,113,0.0,0.0,49,0.00,,,0.00,WUHU216HW,2013-03-22 23:37:00,
2013-03-22 19:38:00,46.4,28.3,29.86,ESE,113,0.0,0.0,49,0.00,,,0.00,WUHU216HW,2013-03-22 23:38:00,
2013-03-22 19:42:00,46.3,28.6,29.86,ESE,113,0.0,0.0,50,0.00,,,0.00,WUHU216HW,2013-03-22 23:42:00,
2013-03-22 19:43:00,46.3,28.6,29.86,ESE,113,0.0,0.0,50,0.00,,,0.00,WUHU216HW,2013-03-22 23:43:00,
2013-03-22 19:44:00,46.3,28.6,29.86,ESE,113,0.0,0.0,50,0.00,,,0.00,WUHU216HW,2013-03-22 23:44:00,
2013-03-22 19:47:00,46.3,29.1,29.86,ESE,113,0.0,0.0,51,0.00,,,0.00,WUHU216HW,2013-03-22 23:47:00,
2013-03-22 19:48:00,46.1,28.9,29.86,ESE,113,0.0,0.0,51,0.00,,,0.00,WUHU216HW,2013-03-22 23:48:00,
2013-03-22 19:49:00,46.1,28.9,29.86,ESE,113,0.0,0.0,51,0.00,,,0.00,WUHU216HW,2013-03-22 23:49:00,
2013-03-22 19:52:00,46.1,28.9,29.86,ESE,113,0.0,0.0,51,0.00,,,0.00,WUHU216HW,2013-03-22 23:52:00,
2013-03-22 19:53:00,45.9,28.8,29.86,ESE,113,0.0,0.0,51,0.00,,,0.00,WUHU216HW,2013-03-22 23:53:00,
2013-03-22 19:54:00,45.9,28.8,29.86,ESE,113,0.0,0.0,51,0.00,,,0.00,WUHU216HW,2013-03-22 23:54:00,
2013-03-22 19:55:00,45.9,28.8,29.86,ESE,113,0.0,0.0,51,0.00,,,0.00,WUHU216HW,2013-03-22 23:55:00,
2013-03-22 19:57:00,45.9,29.3,29.86,ESE,113,0.0,0.0,52,0.00,,,0.00,WUHU216HW,2013-03-22 23:57:00,
2013-03-22 19:58:00,45.7,29.1,29.86,ESE,113,0.0,0.0,52,0.00,,,0.00,WUHU216HW,2013-03-22 23:58:00,
2013-03-22 19:59:00,45.7,29.1,29.86,ESE,113,0.0,0.0,52,0.00,,,0.00,WUHU216HW,2013-03-22 23:59:00,
2013-03-22 20:02:00,45.7,29.1,29.86,ESE,113,0.0,0.0,52,0.00,,,0.00,WUHU216HW,2013-03-23 00:02:00,
2013-03-22 20:05:00,45.7,29.1,29.86,ESE,113,0.0,0.0,52,0.00,,,0.00,WUHU216HW,2013-03-23 00:05:00,
2013-03-22 20:07:00,45.5,28.9,29.86,ESE,113,0.0,0.0,52,0.00,,,0.00,WUHU216HW,2013-03-23 00:07:00,
2013-03-22 20:08:00,45.5,28.9,29.86,ESE,113,0.0,0.0,52,0.00,,,0.00,WUHU216HW,2013-03-23 00:08:00,
2013-03-22 20:10:00,45.4,28.7,29.87,ESE,113,0.0,0.0,52,0.00,,,0.00,WUHU216HW,2013-03-23 00:10:00,
2013-03-22 20:11:00,45.4,28.7,29.87,ESE,113,0.0,0.0,52,0.00,,,0.00,WUHU216HW,2013-03-23 00:11:00,
2013-03-22 20:13:00,45.4,28.7,29.87,ESE,113,0.0,0.0,52,0.00,,,0.00,WUHU216HW,2013-03-23 00:13:00,
2013-03-22 20:15:00,45.4,28.7,29.87,ESE,113,0.0,0.0,52,0.00,,,0.00,WUHU216HW,2013-03-23 00:15:00,
2013-03-22 20:17:00,45.2,28.5,29.87,ESE,113,0.0,0.0,52,0.00,,,0.00,WUHU216HW,2013-03-23 00:17:00,
2013-03-22 20:18:00,45.2,28.5,29.87,ESE,113,0.0,0.0,52,0.00,,,0.00,WUHU216HW,2013-03-23 00:18:00,
2013-03-22 20:20:00,45.2,28.5,29.87,ESE,113,0.0,0.0,52,0.00,,,0.00,WUHU216HW,2013-03-23 00:20:00,
2013-03-22 20:22:00,45.2,28.5,29.87,ESE,113,0.0,0.0,52,0.00,,,0.00,WUHU216HW,2013-03-23 00:22:00,
2013-03-22 20:23:00,45.2,28.5,29.87,ESE,113,0.0,0.0,52,0.00,,,0.00,WUHU216HW,2013-03-23 00:23:00,
2013-03-22 20:27:00,45.2,29.0,29.87,ESE,113,0.0,0.0,53,0.00,,,0.00,WUHU216HW,2013-03-23 00:27:00,
2013-03-22 20:28:00,45.2,29.0,29.87,ESE,113,0.0,0.0,53,0.00,,,0.00,WUHU216HW,2013-03-23 00:28:00,
2013-03-22 20:29:00,45.2,29.0,29.87,ESE,113,0.0,0.0,53,0.00,,,0.00,WUHU216HW,2013-03-23 00:29:00,
2013-03-22 20:30:00,45.2,29.0,29.87,ESE,113,0.0,0.0,53,0.00,,,0.00,WUHU216HW,2013-03-23 00:30:00,
2013-03-22 20:32:00,45.2,29.0,29.87,ESE,113,0.0,0.0,53,0.00,,,0.00,WUHU216HW,2013-03-23 00:32:00,
2013-03-22 20:34:00,45.2,29.4,29.87,ESE,113,0.0,0.0,54,0.00,,,0.00,WUHU216HW,2013-03-23 00:34:00,
2013-03-22 20:35:00,45.0,29.4,29.87,ESE,113,0.0,0.0,54,0.00,,,0.00,WUHU216HW,2013-03-23 00:35:00,
2013-03-22 20:37:00,45.0,29.4,29.87,ESE,113,0.0,0.0,54,0.00,,,0.00,WUHU216HW,2013-03-23 00:37:00,
2013-03-22 20:40:00,45.0,29.4,29.87,ESE,113,0.0,0.0,54,0.00,,,0.00,WUHU216HW,2013-03-23 00:40:00,
2013-03-22 20:43:00,45.0,29.8,29.87,ESE,113,0.0,0.0,55,0.00,,,0.00,WUHU216HW,2013-03-23 00:43:00,
2013-03-22 20:45:00,45.0,29.8,29.87,ESE,113,0.0,0.0,55,0.00,,,0.00,WUHU216HW,2013-03-23 00:45:00,
2013-03-22 20:48:00,45.0,29.8,29.88,ESE,113,0.0,0.0,55,0.00,,,0.00,WUHU216HW,2013-03-23 00:48:00,
2013-03-22 20:50:00,45.0,29.8,29.87,ESE,113,0.0,0.0,55,0.00,,,0.00,WUHU216HW,2013-03-23 00:50:00,
2013-03-22 20:51:00,45.0,29.8,29.88,ESE,113,0.0,0.0,55,0.00,,,0.00,WUHU216HW,2013-03-23 00:51:00,
2013-03-22 20:52:00,45.0,29.8,29.87,ESE,113,0.0,0.0,55,0.00,,,0.00,WUHU216HW,2013-03-23 00:52:00,
2013-03-22 20:55:00,45.0,29.8,29.88,ESE,113,0.0,0.0,55,0.00,,,0.00,WUHU216HW,2013-03-23 00:55:00,
2013-03-22 20:56:00,45.0,29.8,29.88,ESE,113,0.0,0.0,55,0.00,,,0.00,WUHU216HW,2013-03-23 00:56:00,
2013-03-22 20:57:00,45.0,30.3,29.88,ESE,113,0.0,0.0,56,0.00,,,0.00,WUHU216HW,2013-03-23 00:57:00,
2013-03-22 21:00:00,45.0,29.8,29.87,ESE,113,0.0,0.0,55,0.00,,,0.00,WUHU216HW,2013-03-23 01:00:00,
2013-03-22 21:01:00,45.0,30.3,29.87,ESE,113,0.0,0.0,56,0.00,,,0.00,WUHU216HW,2013-03-23 01:01:00,
2013-03-22 21:02:00,45.0,30.3,29.88,ESE,113,0.0,0.0,56,0.00,,,0.00,WUHU216HW,2013-03-23 01:02:00,
2013-03-22 21:03:00,45.0,30.3,29.88,ESE,113,0.0,0.0,56,0.00,,,0.00,WUHU216HW,2013-03-23 01:03:00,
2013-03-22 21:05:00,45.0,30.7,29.88,ESE,113,0.0,0.0,57,0.00,,,0.00,WUHU216HW,2013-03-23 01:05:00,
2013-03-22 21:07:00,45.0,30.7,29.88,ESE,113,0.0,0.0,57,0.00,,,0.00,WUHU216HW,2013-03-23 01:07:00,
2013-03-22 21:08:00,45.0,30.7,29.88,ESE,113,0.0,0.0,57,0.00,,,0.00,WUHU216HW,2013-03-23 01:08:00,
2013-03-22 21:11:00,45.0,30.7,29.88,ESE,113,0.0,0.0,57,0.00,,,0.00,WUHU216HW,2013-03-23 01:11:00,
2013-03-22 21:12:00,45.0,30.7,29.88,ESE,113,0.0,0.0,57,0.00,,,0.00,WUHU216HW,2013-03-23 01:12:00,
2013-03-22 21:13:00,45.0,30.7,29.88,ESE,113,0.0,0.0,57,0.00,,,0.00,WUHU216HW,2013-03-23 01:13:00,
2013-03-22 21:14:00,44.8,30.5,29.87,ESE,113,0.2,0.2,57,0.00,,,0.00,WUHU216HW,2013-03-23 01:14:00,
2013-03-22 21:17:00,44.8,30.5,29.88,ESE,113,0.2,0.4,57,0.00,,,0.00,WUHU216HW,2013-03-23 01:17:00,
2013-03-22 21:18:00,44.8,30.5,29.87,ESE,113,0.0,0.4,57,0.00,,,0.00,WUHU216HW,2013-03-23 01:18:00,
2013-03-22 21:19:00,44.8,30.5,29.87,NNW,338,0.0,0.4,57,0.00,,,0.00,WUHU216HW,2013-03-23 01:19:00,
2013-03-22 21:22:00,44.8,30.1,29.88,NNW,338,0.0,0.4,56,0.00,,,0.00,WUHU216HW,2013-03-23 01:22:00,
2013-03-22 21:23:00,44.8,30.5,29.87,North,0,0.0,0.4,57,0.00,,,0.00,WUHU216HW,2013-03-23 01:23:00,
2013-03-22 21:24:00,44.8,30.5,29.87,North,0,0.0,0.4,57,0.00,,,0.00,WUHU216HW,2013-03-23 01:24:00,
2013-03-22 21:26:00,44.8,30.5,29.87,West,270,0.0,0.0,57,0.00,,,0.00,WUHU216HW,2013-03-23 01:26:00,
2013-03-22 21:27:00,44.8,30.5,29.88,West,270,0.0,0.0,57,0.00,,,0.00,WUHU216HW,2013-03-23 01:27:00,
2013-03-22 21:28:00,44.8,30.5,29.88,West,270,0.0,0.0,57,0.00,,,0.00,WUHU216HW,2013-03-23 01:28:00,
2013-03-22 21:30:00,44.8,31.0,29.87,West,270,0.0,0.0,58,0.00,,,0.00,WUHU216HW,2013-03-23 01:30:00,
2013-03-22 21:32:00,44.6,30.3,29.88,North,0,0.0,0.0,57,0.00,,,0.00,WUHU216HW,2013-03-23 01:32:00,
2013-03-22 21:34:00,44.6,30.8,29.87,North,0,0.4,0.4,58,0.00,,,0.00,WUHU216HW,2013-03-23 01:34:00,
2013-03-22 21:35:00,44.6,30.8,29.87,North,5,1.3,2.5,58,0.00,,,0.00,WUHU216HW,2013-03-23 01:35:00,
2013-03-22 21:38:00,44.6,30.3,29.87,NNE,19,1.5,2.5,57,0.00,,,0.00,WUHU216HW,2013-03-23 01:38:00,
2013-03-22 21:39:00,44.6,30.3,29.87,North,0,1.1,2.5,57,0.00,,,0.00,WUHU216HW,2013-03-23 01:39:00,
2013-03-22 21:40:00,44.6,30.3,29.88,North,9,1.0,2.5,57,0.00,,,0.00,WUHU216HW,2013-03-23 01:40:00,
2013-03-22 21:43:00,44.6,30.3,29.88,North,358,0.8,2.5,57,0.00,,,0.00,WUHU216HW,2013-03-23 01:43:00,
2013-03-22 21:44:00,44.6,30.3,29.88,North,358,0.7,2.5,57,0.00,,,0.00,WUHU216HW,2013-03-23 01:44:00,
2013-03-22 21:45:00,44.6,30.3,29.88,North,0,1.3,2.5,57,0.00,,,0.00,WUHU216HW,2013-03-23 01:45:00,
2013-03-22 21:49:00,44.6,30.3,29.88,North,3,0.7,1.8,57,0.00,,,0.00,WUHU216HW,2013-03-23 01:49:00,
2013-03-22 21:50:00,44.6,30.3,29.88,North,6,0.2,1.8,57,0.00,,,0.00,WUHU216HW,2013-03-23 01:50:00,
2013-03-22 21:51:00,44.6,30.3,29.88,NNE,23,0.2,1.8,57,0.00,,,0.00,WUHU216HW,2013-03-23 01:51:00,
2013-03-22 21:54:00,44.6,30.3,29.88,NNE,23,0.0,1.8,57,0.00,,,0.00,WUHU216HW,2013-03-23 01:54:00,
2013-03-22 21:56:00,44.5,30.2,29.88,West,270,0.0,1.6,57,0.00,,,0.00,WUHU216HW,2013-03-23 01:56:00,
2013-03-22 21:57:00,44.5,30.6,29.88,West,270,0.0,1.1,58,0.00,,,0.00,WUHU216HW,2013-03-23 01:57:00,
2013-03-22 21:58:00,44.6,30.8,29.88,WSW,248,0.0,1.1,58,0.00,,,0.00,WUHU216HW,2013-03-23 01:58:00,
2013-03-22 21:59:00,44.5,30.6,29.88,WSW,248,0.0,0.2,58,0.00,,,0.00,WUHU216HW,2013-03-23 01:59:00,
2013-03-22 22:02:00,44.5,31.1,29.88,WSW,248,0.0,0.0,59,0.00,,,0.00,WUHU216HW,2013-03-23 02:02:00,
2013-03-22 22:03:00,44.5,31.1,29.88,WSW,248,0.0,0.0,59,0.00,,,0.00,WUHU216HW,2013-03-23 02:03:00,
2013-03-22 22:05:00,44.3,30.9,29.88,East,90,0.0,0.0,59,0.00,,,0.00,WUHU216HW,2013-03-23 02:05:00,
2013-03-22 22:07:00,44.3,30.9,29.88,NE,45,1.3,1.3,59,0.00,,,0.00,WUHU216HW,2013-03-23 02:07:00,
2013-03-22 22:08:00,44.3,30.9,29.88,NE,45,1.3,1.3,59,0.00,,,0.00,WUHU216HW,2013-03-23 02:08:00,
2013-03-22 22:11:00,44.3,30.9,29.88,NE,45,1.1,1.3,59,0.00,,,0.00,WUHU216HW,2013-03-23 02:11:00,
2013-03-22 22:13:00,44.3,30.9,29.88,ENE,68,0.9,1.3,59,0.00,,,0.00,WUHU216HW,2013-03-23 02:13:00,
2013-03-22 22:14:00,44.3,30.9,29.88,ENE,74,0.7,1.3,59,0.00,,,0.00,WUHU216HW,2013-03-23 02:14:00,
2013-03-22 22:17:00,44.3,30.9,29.88,North,0,0.0,1.3,59,0.00,,,0.00,WUHU216HW,2013-03-23 02:17:00,
2013-03-22 22:18:00,44.3,30.9,29.88,North,0,0.0,1.1,59,0.00,,,0.00,WUHU216HW,2013-03-23 02:18:00,
2013-03-22 22:19:00,44.3,30.9,29.89,North,0,0.0,1.1,59,0.00,,,0.00,WUHU216HW,2013-03-23 02:19:00,
2013-03-22 22:22:00,44.3,30.9,29.89,West,270,1.0,1.3,59,0.00,,,0.00,WUHU216HW,2013-03-23 02:22:00,
2013-03-22 22:23:00,44.3,31.3,29.89,West,270,0.5,1.3,60,0.00,,,0.00,WUHU216HW,2013-03-23 02:23:00,
2013-03-22 22:24:00,44.3,31.3,29.89,West,270,0.3,1.3,60,0.00,,,0.00,WUHU216HW,2013-03-23 02:24:00,
2013-03-22 22:25:00,44.3,31.3,29.89,West,270,0.2,1.3,60,0.00,,,0.00,WUHU216HW,2013-03-23 02:25:00,
2013-03-22 22:28:00,44.1,31.1,29.89,West,270,0.0,1.3,60,0.00,,,0.00,WUHU216HW,2013-03-23 02:28:00,
2013-03-22 22:30:00,44.1,31.5,29.89,West,270,0.0,1.3,61,0.00,,,0.00,WUHU216HW,2013-03-23 02:30:00,
2013-03-22 22:33:00,44.1,31.5,29.89,WNW,293,0.0,0.0,61,0.00,,,0.00,WUHU216HW,2013-03-23 02:33:00,
2013-03-22 22:35:00,44.1,31.5,29.89,WNW,293,0.0,0.0,61,0.00,,,0.00,WUHU216HW,2013-03-23 02:35:00,
2013-03-22 22:36:00,44.1,31.5,29.89,WNW,293,0.0,0.0,61,0.00,,,0.00,WUHU216HW,2013-03-23 02:36:00,
2013-03-22 22:39:00,44.1,31.5,29.89,NNE,23,0.4,0.4,61,0.00,,,0.00,WUHU216HW,2013-03-23 02:39:00,
2013-03-22 22:40:00,44.1,31.5,29.89,NE,45,1.1,1.1,61,0.00,,,0.00,WUHU216HW,2013-03-23 02:40:00,
2013-03-22 22:41:00,44.1,31.5,29.89,ENE,68,2.0,2.5,61,0.00,,,0.00,WUHU216HW,2013-03-23 02:41:00,
2013-03-22 22:42:00,44.1,31.5,29.88,NE,56,1.8,2.5,61,0.00,,,0.00,WUHU216HW,2013-03-23 02:42:00,
2013-03-22 22:45:00,44.1,31.1,29.89,West,270,0.0,2.5,60,0.00,,,0.00,WUHU216HW,2013-03-23 02:45:00,
2013-03-22 22:46:00,43.9,31.0,29.89,West,270,0.0,2.5,60,0.00,,,0.00,WUHU216HW,2013-03-23 02:46:00,
2013-03-22 22:47:00,43.9,31.3,29.89,ENE,68,0.0,2.5,61,0.00,,,0.00,WUHU216HW,2013-03-23 02:47:00,
2013-03-22 22:51:00,43.9,31.0,29.88,ESE,113,0.9,2.0,60,0.00,,,0.00,WUHU216HW,2013-03-23 02:51:00,
2013-03-22 22:52:00,43.9,31.0,29.88,ESE,113,0.7,1.6,60,0.00,,,0.00,WUHU216HW,2013-03-23 02:52:00,
2013-03-22 22:56:00,43.9,31.8,29.88,ESE,113,0.0,1.3,62,0.00,,,0.00,WUHU216HW,2013-03-23 02:56:00,
2013-03-22 22:57:00,43.9,31.8,29.88,ESE,113,0.0,1.3,62,0.00,,,0.00,WUHU216HW,2013-03-23 02:57:00,
2013-03-22 22:58:00,43.9,32.1,29.88,ESE,113,0.0,1.3,63,0.00,,,0.00,WUHU216HW,2013-03-23 02:58:00,
2013-03-22 23:02:00,43.6,31.8,29.88,North,0,0.4,0.4,63,0.00,,,0.00,WUHU216HW,2013-03-23 03:02:00,
2013-03-22 23:04:00,43.6,31.8,29.88,North,0,0.3,0.4,63,0.00,,,0.00,WUHU216HW,2013-03-23 03:04:00,
2013-03-22 23:08:00,43.2,31.4,29.89,West,270,0.0,0.4,63,0.00,,,0.00,WUHU216HW,2013-03-23 03:08:00,
2013-03-22 23:09:00,43.2,31.4,29.89,WSW,248,0.0,0.4,63,0.00,,,0.00,WUHU216HW,2013-03-23 03:09:00,
2013-03-22 23:10:00,43.2,31.8,29.89,WSW,248,0.0,0.4,64,0.00,,,0.00,WUHU216HW,2013-03-23 03:10:00,
2013-03-22 23:13:00,43.0,31.7,29.89,West,270,0.0,0.0,64,0.00,,,0.00,WUHU216HW,2013-03-23 03:13:00,
2013-03-22 23:14:00,43.0,31.7,29.89,West,270,0.0,0.0,64,0.00,,,0.00,WUHU216HW,2013-03-23 03:14:00,
2013-03-22 23:17:00,42.8,31.9,29.89,West,270,0.7,1.1,65,0.00,,,0.00,WUHU216HW,2013-03-23 03:17:00,
2013-03-22 23:18:00,42.8,31.9,29.89,West,270,0.4,1.1,65,0.00,,,0.00,WUHU216HW,2013-03-23 03:18:00,
2013-03-22 23:19:00,42.8,32.2,29.89,West,270,0.3,1.1,66,0.00,,,0.00,WUHU216HW,2013-03-23 03:19:00,
2013-03-22 23:23:00,42.7,32.5,29.88,SE,135,0.8,1.1,67,0.00,,,0.00,WUHU216HW,2013-03-23 03:23:00,
2013-03-22 23:25:00,42.7,32.5,29.89,SE,135,0.2,1.1,67,0.00,,,0.00,WUHU216HW,2013-03-23 03:25:00,
2013-03-22 23:26:00,42.7,32.5,29.89,SE,135,0.0,1.1,67,0.00,,,0.00,WUHU216HW,2013-03-23 03:26:00,
2013-03-22 23:28:00,42.7,32.5,29.89,South,180,0.5,1.1,67,0.00,,,0.00,WUHU216HW,2013-03-23 03:28:00,
2013-03-22 23:31:00,42.5,32.7,29.89,South,180,0.0,1.1,68,0.00,,,0.00,WUHU216HW,2013-03-23 03:31:00,
2013-03-22 23:32:00,42.5,32.7,29.89,South,180,0.0,0.9,68,0.00,,,0.00,WUHU216HW,2013-03-23 03:32:00,
2013-03-22 23:33:00,42.5,32.7,29.89,South,180,0.2,0.7,68,0.00,,,0.00,WUHU216HW,2013-03-23 03:33:00,
2013-03-22 23:36:00,42.5,32.7,29.89,South,180,0.0,0.7,68,0.00,,,0.00,WUHU216HW,2013-03-23 03:36:00,
2013-03-22 23:37:00,42.5,32.7,29.89,South,180,0.0,0.7,68,0.00,,,0.00,WUHU216HW,2013-03-23 03:37:00,
2013-03-22 23:38:00,42.5,32.7,29.89,South,180,0.0,0.4,68,0.00,,,0.00,WUHU216HW,2013-03-23 03:38:00,
2013-03-22 23:40:00,42.5,32.7,29.88,SE,135,0.9,1.1,68,0.00,,,0.00,WUHU216HW,2013-03-23 03:40:00,
2013-03-22 23:42:00,42.5,32.7,29.88,SE,139,1.2,1.6,68,0.00,,,0.00,WUHU216HW,2013-03-23 03:42:00,
2013-03-22 23:44:00,42.5,32.7,29.88,SSE,151,1.1,1.6,68,0.00,,,0.00,WUHU216HW,2013-03-23 03:44:00,
2013-03-22 23:45:00,42.5,32.7,29.88,SSE,151,1.0,1.6,68,0.00,,,0.00,WUHU216HW,2013-03-23 03:45:00,
2013-03-22 23:47:00,42.5,32.7,29.88,ESE,113,0.6,1.6,68,0.00,,,0.00,WUHU216HW,2013-03-23 03:47:00,
2013-03-22 23:49:00,42.5,33.1,29.89,ESE,113,0.4,1.6,69,0.00,,,0.00,WUHU216HW,2013-03-23 03:49:00,
2013-03-22 23:50:00,42.5,33.1,29.89,NW,315,0.0,1.6,69,0.00,,,0.00,WUHU216HW,2013-03-23 03:50:00,
2013-03-22 23:53:00,42.5,33.1,29.89,North,355,0.5,1.1,69,0.00,,,0.00,WUHU216HW,2013-03-23 03:53:00,
2013-03-22 23:54:00,42.5,33.1,29.88,NNE,23,0.9,1.1,69,0.00,,,0.00,WUHU216HW,2013-03-23 03:54:00,
2013-03-22 23:55:00,42.3,33.3,29.88,ENE,57,1.5,1.8,70,0.00,,,0.00,WUHU216HW,2013-03-23 03:55:00,
2013-03-22 23:56:00,42.3,33.3,29.88,ESE,113,1.8,1.8,70,0.00,,,0.00,WUHU216HW,2013-03-23 03:56:00,
2013-03-22 23:58:00,42.3,33.0,29.88,ESE,113,1.8,2.2,69,0.00,,,0.00,WUHU216HW,2013-03-23 03:58:00,
2013-03-22 23:59:00,42.1,32.8,29.88,ESE,113,1.6,2.2,69,0.00,,,0.00,WUHU216HW,2013-03-23 03:59:00,